Wetterdaten: Mittwoch, 18.02.2026
Datum Zeit Temp. Aussen Temp. o. S. Temp +5cm Feuchte Auss Luftdruck Regen Sonnenschein Regendauer Solar Windböen Empfang
18.02.2026 00:00 2,7 °C 2,2 °C -1,1 °C 93 % 1014,6 hPa 0,0 l/m² 0 min 0 min 0 W/m² 16,1 km/h (3 Bft) 97,87 %
18.02.2026 00:02 2,7 °C 2,2 °C -1,1 °C 93 % 1014,6 hPa 0,0 l/m² 0 min 0 min 0 W/m² 3,2 km/h (1 Bft) 11,11 %
18.02.2026 00:04 2,8 °C 2,2 °C -1,1 °C 93 % 1014,6 hPa 0,0 l/m² 0 min 0 min 0 W/m² 16,1 km/h (3 Bft) 86,05 %
18.02.2026 00:07 2,7 °C 2,2 °C -1,1 °C 93 % 1014,6 hPa 0,0 l/m² 0 min 0 min 0 W/m² 12,9 km/h (3 Bft) 97,26 %
18.02.2026 00:08 2,7 °C 2,2 °C -1,1 °C 93 % 1014,6 hPa 0,0 l/m² 0 min 0 min 0 W/m² 12,9 km/h (3 Bft) 95,65 %
18.02.2026 00:10 2,7 °C 2,2 °C -1,1 °C 93 % 1014,6 hPa 0,0 l/m² 0 min 0 min 0 W/m² 12,9 km/h (3 Bft) 85,64 %
18.02.2026 00:12 2,8 °C 2,2 °C -1,1 °C 93 % 1014,6 hPa 0,0 l/m² 0 min 0 min 0 W/m² 9,7 km/h (2 Bft) 100,00 %
18.02.2026 00:14 2,8 °C 2,2 °C -1,1 °C 93 % 1014,7 hPa 0,0 l/m² 0 min 0 min 0 W/m² 12,9 km/h (3 Bft) 97,87 %
18.02.2026 00:16 2,8 °C 2,2 °C -1,1 °C 93 % 1014,7 hPa 0,0 l/m² 0 min 0 min 0 W/m² 6,4 km/h (2 Bft) 100,00 %
18.02.2026 00:18 2,8 °C 2,2 °C -1,1 °C 93 % 1014,7 hPa 0,0 l/m² 0 min 0 min 0 W/m² 12,9 km/h (3 Bft) 97,87 %
18.02.2026 00:20 2,8 °C 2,2 °C -1,1 °C 93 % 1014,7 hPa 0,0 l/m² 0 min 0 min 0 W/m² 12,9 km/h (3 Bft) 97,87 %
18.02.2026 00:22 2,8 °C 2,2 °C -1,1 °C 93 % 1014,7 hPa 0,0 l/m² 0 min 0 min 0 W/m² 12,9 km/h (3 Bft) 100,00 %
18.02.2026 00:24 2,8 °C 2,2 °C -1,1 °C 93 % 1014,7 hPa 0,0 l/m² 0 min 0 min 0 W/m² 12,9 km/h (3 Bft) 97,87 %
18.02.2026 00:26 2,8 °C 2,2 °C -1,1 °C 93 % 1014,7 hPa 0,0 l/m² 0 min 0 min 0 W/m² 12,9 km/h (3 Bft) 97,87 %
18.02.2026 00:28 2,8 °C 2,2 °C -1,1 °C 93 % 1014,7 hPa 0,0 l/m² 0 min 0 min 0 W/m² 9,7 km/h (2 Bft) 93,62 %
18.02.2026 00:30 2,8 °C 2,2 °C -1,1 °C 93 % 1014,7 hPa 0,0 l/m² 0 min 0 min 0 W/m² 12,9 km/h (3 Bft) 97,87 %
18.02.2026 00:32 2,8 °C 2,2 °C -1,1 °C 93 % 1014,7 hPa 0,0 l/m² 0 min 0 min 0 W/m² 12,9 km/h (3 Bft) 97,87 %
18.02.2026 00:34 2,8 °C 2,2 °C -1,1 °C 92 % 1014,7 hPa 0,0 l/m² 0 min 0 min 0 W/m² 6,4 km/h (2 Bft) 95,74 %
18.02.2026 00:36 2,8 °C 2,2 °C -1,1 °C 92 % 1014,7 hPa 0,0 l/m² 0 min 0 min 0 W/m² 9,7 km/h (2 Bft) 97,87 %
18.02.2026 00:38 2,8 °C 2,2 °C -1,1 °C 92 % 1014,7 hPa 0,0 l/m² 0 min 0 min 0 W/m² 9,7 km/h (2 Bft) 97,87 %
18.02.2026 00:40 2,8 °C 2,2 °C -1,1 °C 92 % 1014,7 hPa 0,0 l/m² 0 min 0 min 0 W/m² 12,9 km/h (3 Bft) 98,00 %
18.02.2026 00:42 2,7 °C 2,2 °C -1,1 °C 92 % 1014,7 hPa 0,0 l/m² 0 min 0 min 0 W/m² 16,1 km/h (3 Bft) 95,74 %
18.02.2026 00:44 2,7 °C 2,2 °C -1,1 °C 92 % 1014,7 hPa 0,0 l/m² 0 min 0 min 0 W/m² 12,9 km/h (3 Bft) 97,83 %
18.02.2026 00:46 2,7 °C 2,2 °C -1,1 °C 92 % 1014,7 hPa 0,0 l/m² 0 min 0 min 0 W/m² 16,1 km/h (3 Bft) 97,87 %
18.02.2026 00:48 2,7 °C 2,2 °C -1,1 °C 92 % 1014,7 hPa 0,0 l/m² 0 min 0 min 0 W/m² 12,9 km/h (3 Bft) 97,87 %
18.02.2026 00:50 2,7 °C 2,2 °C -1,1 °C 92 % 1014,7 hPa 0,0 l/m² 0 min 0 min 0 W/m² 12,9 km/h (3 Bft) 97,87 %
18.02.2026 00:52 2,7 °C 2,2 °C -1,1 °C 92 % 1014,7 hPa 0,0 l/m² 0 min 0 min 0 W/m² 12,9 km/h (3 Bft) 97,87 %
18.02.2026 00:54 2,7 °C 2,2 °C -1,1 °C 92 % 1014,7 hPa 0,0 l/m² 0 min 0 min 0 W/m² 6,4 km/h (2 Bft) 95,74 %
18.02.2026 00:56 2,7 °C 2,2 °C -1,1 °C 92 % 1014,7 hPa 0,0 l/m² 0 min 0 min 0 W/m² 12,9 km/h (3 Bft) 97,87 %
18.02.2026 00:58 2,7 °C 2,2 °C -1,1 °C 92 % 1014,7 hPa 0,0 l/m² 0 min 0 min 0 W/m² 9,7 km/h (2 Bft) 97,87 %
18.02.2026 01:00 2,7 °C 2,2 °C -1,1 °C 92 % 1014,7 hPa 0,0 l/m² 0 min 0 min 0 W/m² 9,7 km/h (2 Bft) 100,00 %
18.02.2026 01:02 2,7 °C 2,2 °C -1,1 °C 92 % 1014,7 hPa 0,0 l/m² 0 min 0 min 0 W/m² 6,4 km/h (2 Bft) 97,87 %
18.02.2026 01:04 2,7 °C 2,2 °C -1,1 °C 92 % 1014,7 hPa 0,0 l/m² 0 min 0 min 0 W/m² 12,9 km/h (3 Bft) 97,87 %
18.02.2026 01:06 2,7 °C 2,2 °C -1,1 °C 92 % 1014,8 hPa 0,0 l/m² 0 min 0 min 0 W/m² 16,1 km/h (3 Bft) 100,00 %
18.02.2026 01:08 2,7 °C 2,2 °C -1,1 °C 92 % 1014,8 hPa 0,0 l/m² 0 min 0 min 0 W/m² 16,1 km/h (3 Bft) 100,00 %
18.02.2026 01:10 2,7 °C 2,2 °C -1,1 °C 92 % 1014,8 hPa 0,0 l/m² 0 min 0 min 0 W/m² 12,9 km/h (3 Bft) 100,00 %
18.02.2026 01:12 2,7 °C 2,2 °C -1,1 °C 92 % 1014,8 hPa 0,0 l/m² 0 min 0 min 0 W/m² 9,7 km/h (2 Bft) 97,87 %
18.02.2026 01:14 2,7 °C 2,2 °C -1,1 °C 93 % 1014,9 hPa 0,0 l/m² 0 min 0 min 0 W/m² 9,7 km/h (2 Bft) 100,00 %
18.02.2026 01:16 2,7 °C 2,2 °C -1,1 °C 93 % 1014,9 hPa 0,0 l/m² 0 min 0 min 0 W/m² 12,9 km/h (3 Bft) 97,87 %
18.02.2026 01:20 2,8 °C 2,2 °C -1,1 °C 93 % 1014,8 hPa 0,0 l/m² 0 min 0 min 0 W/m² 12,9 km/h (3 Bft) 72,81 %
18.02.2026 01:26 2,7 °C 2,2 °C -1,1 °C 93 % 1014,8 hPa 0,0 l/m² 0 min 0 min 0 W/m² 12,9 km/h (3 Bft) 93,62 %
18.02.2026 01:28 2,7 °C 2,2 °C -1,1 °C 93 % 1014,9 hPa 0,0 l/m² 0 min 0 min 0 W/m² 12,9 km/h (3 Bft) 97,87 %
18.02.2026 01:30 2,7 °C 2,2 °C -1,1 °C 93 % 1014,9 hPa 0,0 l/m² 0 min 0 min 0 W/m² 16,1 km/h (3 Bft) 97,87 %
18.02.2026 01:32 2,7 °C 2,2 °C -1,1 °C 93 % 1014,9 hPa 0,0 l/m² 0 min 0 min 0 W/m² 12,9 km/h (3 Bft) 97,83 %
18.02.2026 01:34 2,7 °C 2,2 °C -1,1 °C 93 % 1015,0 hPa 0,0 l/m² 0 min 0 min 0 W/m² 19,3 km/h (3 Bft) 97,87 %
18.02.2026 01:36 2,7 °C 2,2 °C -1,1 °C 93 % 1015,0 hPa 0,0 l/m² 0 min 0 min 0 W/m² 9,7 km/h (2 Bft) 95,74 %
18.02.2026 01:38 2,7 °C 2,2 °C -1,1 °C 93 % 1015,0 hPa 0,0 l/m² 0 min 0 min 0 W/m² 12,9 km/h (3 Bft) 95,74 %
18.02.2026 01:40 2,7 °C 2,2 °C -1,1 °C 93 % 1015,0 hPa 0,0 l/m² 0 min 0 min 0 W/m² 6,4 km/h (2 Bft) 95,74 %
18.02.2026 01:42 2,7 °C 2,2 °C -1,1 °C 92 % 1015,0 hPa 0,0 l/m² 0 min 0 min 0 W/m² 9,7 km/h (2 Bft) 95,74 %
18.02.2026 01:44 2,7 °C 2,2 °C -1,1 °C 92 % 1015,1 hPa 0,0 l/m² 0 min 0 min 0 W/m² 6,4 km/h (2 Bft) 93,62 %
18.02.2026 01:46 2,7 °C 2,2 °C -1,1 °C 92 % 1015,1 hPa 0,0 l/m² 0 min 0 min 0 W/m² 9,7 km/h (2 Bft) 95,74 %
18.02.2026 01:48 2,7 °C 2,2 °C -1,1 °C 92 % 1015,1 hPa 0,0 l/m² 0 min 0 min 0 W/m² 9,7 km/h (2 Bft) 93,62 %
18.02.2026 01:50 2,7 °C 2,2 °C -1,1 °C 92 % 1015,2 hPa 0,0 l/m² 0 min 0 min 0 W/m² 12,9 km/h (3 Bft) 95,74 %
18.02.2026 01:52 2,6 °C 2,2 °C -1,1 °C 92 % 1015,2 hPa 0,0 l/m² 0 min 0 min 0 W/m² 12,9 km/h (3 Bft) 93,62 %
18.02.2026 01:54 2,6 °C 2,2 °C -1,1 °C 92 % 1015,2 hPa 0,0 l/m² 0 min 0 min 0 W/m² 16,1 km/h (3 Bft) 95,74 %
18.02.2026 01:56 2,6 °C 2,2 °C -1,1 °C 92 % 1015,2 hPa 0,0 l/m² 0 min 0 min 0 W/m² 12,9 km/h (3 Bft) 95,65 %
18.02.2026 01:58 2,6 °C 2,2 °C -1,1 °C 92 % 1015,2 hPa 0,0 l/m² 0 min 0 min 0 W/m² 9,7 km/h (2 Bft) 95,74 %
18.02.2026 02:00 2,6 °C 2,2 °C -1,1 °C 92 % 1015,3 hPa 0,0 l/m² 0 min 0 min 0 W/m² 12,9 km/h (3 Bft) 91,49 %
18.02.2026 02:02 2,6 °C 2,2 °C -1,1 °C 92 % 1015,3 hPa 0,0 l/m² 0 min 0 min 0 W/m² 9,7 km/h (2 Bft) 93,62 %
18.02.2026 02:04 2,6 °C 2,2 °C -1,1 °C 92 % 1015,3 hPa 0,0 l/m² 0 min 0 min 0 W/m² 12,9 km/h (3 Bft) 95,74 %
18.02.2026 02:06 2,6 °C 2,2 °C -1,1 °C 92 % 1015,2 hPa 0,0 l/m² 0 min 0 min 0 W/m² 12,9 km/h (3 Bft) 93,62 %
18.02.2026 02:08 2,6 °C 2,2 °C -1,1 °C 92 % 1015,2 hPa 0,0 l/m² 0 min 0 min 0 W/m² 6,4 km/h (2 Bft) 95,74 %
18.02.2026 02:10 2,6 °C 2,2 °C -1,1 °C 92 % 1015,2 hPa 0,0 l/m² 0 min 0 min 0 W/m² 6,4 km/h (2 Bft) 100,00 %
18.02.2026 02:12 2,6 °C 2,2 °C -1,1 °C 92 % 1015,2 hPa 0,0 l/m² 0 min 0 min 0 W/m² 9,7 km/h (2 Bft) 97,87 %
18.02.2026 02:14 2,6 °C 1,7 °C -1,1 °C 92 % 1015,2 hPa 0,0 l/m² 0 min 0 min 0 W/m² 6,4 km/h (2 Bft) 100,00 %
18.02.2026 02:16 2,6 °C 1,7 °C -1,1 °C 92 % 1015,3 hPa 0,0 l/m² 0 min 0 min 0 W/m² 6,4 km/h (2 Bft) 100,00 %
18.02.2026 02:18 2,6 °C 1,7 °C -1,1 °C 92 % 1015,3 hPa 0,0 l/m² 0 min 0 min 0 W/m² 9,7 km/h (2 Bft) 100,00 %
18.02.2026 02:20 2,6 °C 1,7 °C -1,1 °C 92 % 1015,3 hPa 0,0 l/m² 0 min 0 min 0 W/m² 6,4 km/h (2 Bft) 100,00 %
18.02.2026 02:22 2,5 °C 1,7 °C -1,1 °C 92 % 1015,2 hPa 0,0 l/m² 0 min 0 min 0 W/m² 6,4 km/h (2 Bft) 100,00 %
18.02.2026 02:24 2,5 °C 1,7 °C -1,1 °C 92 % 1015,3 hPa 0,0 l/m² 0 min 0 min 0 W/m² 9,7 km/h (2 Bft) 100,00 %
18.02.2026 02:26 2,5 °C 1,7 °C -1,1 °C 92 % 1015,3 hPa 0,0 l/m² 0 min 0 min 0 W/m² 3,2 km/h (1 Bft) 97,87 %
18.02.2026 02:28 2,4 °C 1,7 °C -1,1 °C 92 % 1015,3 hPa 0,0 l/m² 0 min 0 min 0 W/m² 6,4 km/h (2 Bft) 100,00 %
18.02.2026 02:30 2,4 °C 1,7 °C -1,1 °C 92 % 1015,3 hPa 0,0 l/m² 0 min 0 min 0 W/m² 6,4 km/h (2 Bft) 100,00 %
18.02.2026 02:32 2,4 °C 1,7 °C -1,1 °C 92 % 1015,4 hPa 0,0 l/m² 0 min 0 min 0 W/m² 6,4 km/h (2 Bft) 100,00 %
18.02.2026 02:34 2,4 °C 1,7 °C -1,1 °C 92 % 1015,4 hPa 0,0 l/m² 0 min 0 min 0 W/m² 9,7 km/h (2 Bft) 100,00 %
18.02.2026 02:36 2,3 °C 1,7 °C -1,1 °C 92 % 1015,4 hPa 0,0 l/m² 0 min 0 min 0 W/m² 6,4 km/h (2 Bft) 97,87 %
18.02.2026 02:38 2,3 °C 1,7 °C -1,1 °C 92 % 1015,4 hPa 0,0 l/m² 0 min 0 min 0 W/m² 9,7 km/h (2 Bft) 100,00 %
18.02.2026 02:40 2,3 °C 1,7 °C -1,1 °C 92 % 1015,4 hPa 0,0 l/m² 0 min 0 min 0 W/m² 3,2 km/h (1 Bft) 100,00 %
18.02.2026 02:42 2,3 °C 1,7 °C -1,1 °C 91 % 1015,4 hPa 0,0 l/m² 0 min 0 min 0 W/m² 6,4 km/h (2 Bft) 95,74 %
18.02.2026 02:44 2,2 °C 1,7 °C -1,1 °C 91 % 1015,4 hPa 0,0 l/m² 0 min 0 min 0 W/m² 6,4 km/h (2 Bft) 100,00 %
18.02.2026 02:46 2,2 °C 1,7 °C -1,1 °C 91 % 1015,4 hPa 0,0 l/m² 0 min 0 min 0 W/m² 9,7 km/h (2 Bft) 95,74 %
18.02.2026 02:48 2,2 °C 1,7 °C -1,1 °C 91 % 1015,3 hPa 0,0 l/m² 0 min 0 min 0 W/m² 9,7 km/h (2 Bft) 100,00 %
18.02.2026 02:50 2,2 °C 1,7 °C -1,1 °C 91 % 1015,4 hPa 0,0 l/m² 0 min 0 min 0 W/m² 9,7 km/h (2 Bft) 100,00 %
18.02.2026 02:52 2,2 °C 1,7 °C -1,1 °C 91 % 1015,4 hPa 0,0 l/m² 0 min 0 min 0 W/m² 6,4 km/h (2 Bft) 97,87 %
18.02.2026 02:54 2,2 °C 1,7 °C -1,1 °C 91 % 1015,4 hPa 0,0 l/m² 0 min 0 min 0 W/m² 12,9 km/h (3 Bft) 97,87 %
18.02.2026 02:56 2,1 °C 1,7 °C -1,1 °C 91 % 1015,4 hPa 0,0 l/m² 0 min 0 min 0 W/m² 6,4 km/h (2 Bft) 96,00 %
18.02.2026 03:01 2,1 °C 1,7 °C -1,7 °C 91 % 1015,4 hPa 0,0 l/m² 0 min 0 min 0 W/m² 6,4 km/h (2 Bft) 100,00 %
18.02.2026 03:02 2,1 °C 1,7 °C -1,7 °C 91 % 1015,4 hPa 0,0 l/m² 0 min 0 min 0 W/m² 3,2 km/h (1 Bft) 91,30 %
18.02.2026 03:04 2,1 °C 1,7 °C -1,7 °C 91 % 1015,4 hPa 0,0 l/m² 0 min 0 min 0 W/m² 3,2 km/h (1 Bft) 97,87 %
18.02.2026 03:06 2,1 °C 1,7 °C -1,7 °C 91 % 1015,4 hPa 0,0 l/m² 0 min 0 min 0 W/m² 0,0 km/h (0 Bft) 56,52 %
18.02.2026 03:08 2,2 °C 1,7 °C -1,7 °C 90 % 1015,4 hPa 0,0 l/m² 0 min 0 min 0 W/m² 3,2 km/h (1 Bft) 97,37 %
18.02.2026 03:10 2,2 °C 1,7 °C -1,7 °C 90 % 1015,4 hPa 0,0 l/m² 0 min 0 min 0 W/m² 6,4 km/h (2 Bft) 97,87 %
18.02.2026 03:12 2,1 °C 1,7 °C -1,7 °C 90 % 1015,4 hPa 0,0 l/m² 0 min 0 min 0 W/m² 3,2 km/h (1 Bft) 97,87 %
18.02.2026 03:14 2,2 °C 1,7 °C -1,7 °C 90 % 1015,4 hPa 0,0 l/m² 0 min 0 min 0 W/m² 6,4 km/h (2 Bft) 97,87 %
18.02.2026 03:16 2,2 °C 1,7 °C -1,7 °C 90 % 1015,4 hPa 0,0 l/m² 0 min 0 min 0 W/m² 6,4 km/h (2 Bft) 100,00 %
18.02.2026 03:18 2,2 °C 1,7 °C -1,7 °C 90 % 1015,4 hPa 0,0 l/m² 0 min 0 min 0 W/m² 9,7 km/h (2 Bft) 97,87 %
18.02.2026 03:20 2,2 °C 1,7 °C -1,7 °C 90 % 1015,3 hPa 0,0 l/m² 0 min 0 min 0 W/m² 6,4 km/h (2 Bft) 97,56 %
18.02.2026 03:22 2,2 °C 1,7 °C -1,1 °C 90 % 1015,3 hPa 0,0 l/m² 0 min 0 min 0 W/m² 6,4 km/h (2 Bft) 100,00 %
18.02.2026 03:24 2,1 °C 1,7 °C -1,7 °C 90 % 1015,2 hPa 0,0 l/m² 0 min 0 min 0 W/m² 6,4 km/h (2 Bft) 95,74 %
18.02.2026 03:26 2,1 °C 1,7 °C -1,1 °C 90 % 1015,2 hPa 0,0 l/m² 0 min 0 min 0 W/m² 3,2 km/h (1 Bft) 95,74 %
18.02.2026 03:28 2,1 °C 1,7 °C -1,7 °C 90 % 1015,2 hPa 0,0 l/m² 0 min 0 min 0 W/m² 6,4 km/h (2 Bft) 93,48 %
18.02.2026 03:30 2,1 °C 1,7 °C -1,1 °C 90 % 1015,3 hPa 0,0 l/m² 0 min 0 min 0 W/m² 6,4 km/h (2 Bft) 95,74 %
18.02.2026 03:32 2,1 °C 1,7 °C -1,7 °C 90 % 1015,3 hPa 0,0 l/m² 0 min 0 min 0 W/m² 3,2 km/h (1 Bft) 97,87 %
18.02.2026 03:34 2,1 °C 1,7 °C -1,7 °C 90 % 1015,2 hPa 0,0 l/m² 0 min 0 min 0 W/m² 3,2 km/h (1 Bft) 95,74 %
18.02.2026 03:36 2,1 °C 1,7 °C -1,7 °C 90 % 1015,2 hPa 0,0 l/m² 0 min 0 min 0 W/m² 3,2 km/h (1 Bft) 97,87 %
18.02.2026 03:38 2,2 °C 1,7 °C -1,7 °C 90 % 1015,2 hPa 0,0 l/m² 0 min 0 min 0 W/m² 3,2 km/h (1 Bft) 97,87 %
18.02.2026 03:40 2,1 °C 1,7 °C -1,7 °C 90 % 1015,2 hPa 0,0 l/m² 0 min 0 min 0 W/m² 6,4 km/h (2 Bft) 97,87 %
18.02.2026 03:42 2,2 °C 1,7 °C -1,7 °C 90 % 1015,1 hPa 0,0 l/m² 0 min 0 min 0 W/m² 3,2 km/h (1 Bft) 97,87 %
18.02.2026 03:44 2,2 °C 1,7 °C -1,7 °C 90 % 1015,1 hPa 0,0 l/m² 0 min 0 min 0 W/m² 3,2 km/h (1 Bft) 97,87 %
18.02.2026 03:46 2,2 °C 1,7 °C -1,7 °C 90 % 1015,1 hPa 0,0 l/m² 0 min 0 min 0 W/m² 3,2 km/h (1 Bft) 97,87 %
18.02.2026 03:48 2,2 °C 1,7 °C -1,7 °C 90 % 1015,1 hPa 0,0 l/m² 0 min 0 min 0 W/m² 6,4 km/h (2 Bft) 97,37 %
18.02.2026 03:50 2,2 °C 1,7 °C -1,7 °C 90 % 1015,1 hPa 0,0 l/m² 0 min 0 min 0 W/m² 6,4 km/h (2 Bft) 97,96 %
18.02.2026 03:52 2,2 °C 1,7 °C -1,7 °C 90 % 1015,1 hPa 0,0 l/m² 0 min 0 min 0 W/m² 9,7 km/h (2 Bft) 95,74 %
18.02.2026 03:54 2,2 °C 1,7 °C -1,7 °C 90 % 1015,1 hPa 0,0 l/m² 0 min 0 min 0 W/m² 3,2 km/h (1 Bft) 100,00 %
18.02.2026 03:56 2,2 °C 1,7 °C -1,7 °C 90 % 1015,0 hPa 0,0 l/m² 0 min 0 min 0 W/m² 6,4 km/h (2 Bft) 97,87 %
18.02.2026 03:58 2,2 °C 1,7 °C -1,7 °C 90 % 1015,0 hPa 0,0 l/m² 0 min 0 min 0 W/m² 6,4 km/h (2 Bft) 97,87 %
18.02.2026 04:00 2,2 °C 1,7 °C -1,7 °C 90 % 1015,0 hPa 0,0 l/m² 0 min 0 min 0 W/m² 16,1 km/h (3 Bft) 97,87 %
18.02.2026 04:02 2,2 °C 1,7 °C -1,7 °C 90 % 1015,0 hPa 0,0 l/m² 0 min 0 min 0 W/m² 6,4 km/h (2 Bft) 100,00 %
18.02.2026 04:04 2,1 °C 1,7 °C -1,7 °C 90 % 1015,0 hPa 0,0 l/m² 0 min 0 min 0 W/m² 9,7 km/h (2 Bft) 97,87 %
18.02.2026 04:06 2,1 °C 1,7 °C -1,7 °C 90 % 1015,0 hPa 0,0 l/m² 0 min 0 min 0 W/m² 6,4 km/h (2 Bft) 100,00 %
18.02.2026 04:08 2,1 °C 1,7 °C -1,7 °C 90 % 1015,0 hPa 0,0 l/m² 0 min 0 min 0 W/m² 3,2 km/h (1 Bft) 100,00 %
18.02.2026 04:10 2,1 °C 1,7 °C -1,7 °C 90 % 1014,9 hPa 0,0 l/m² 0 min 0 min 0 W/m² 6,4 km/h (2 Bft) 97,87 %
18.02.2026 04:12 2,1 °C 1,7 °C -1,7 °C 90 % 1014,9 hPa 0,0 l/m² 0 min 0 min 0 W/m² 6,4 km/h (2 Bft) 100,00 %
18.02.2026 04:14 2,1 °C 1,7 °C -1,7 °C 90 % 1014,9 hPa 0,0 l/m² 0 min 0 min 0 W/m² 6,4 km/h (2 Bft) 100,00 %
18.02.2026 04:16 2,1 °C 1,7 °C -1,7 °C 90 % 1014,9 hPa 0,0 l/m² 0 min 0 min 0 W/m² 6,4 km/h (2 Bft) 95,74 %
18.02.2026 04:18 2,1 °C 1,7 °C -1,7 °C 90 % 1014,9 hPa 0,0 l/m² 0 min 0 min 0 W/m² 9,7 km/h (2 Bft) 97,83 %
18.02.2026 04:20 2,1 °C 1,7 °C -1,7 °C 90 % 1014,9 hPa 0,0 l/m² 0 min 0 min 0 W/m² 6,4 km/h (2 Bft) 100,00 %
18.02.2026 04:22 2,1 °C 1,7 °C -1,7 °C 90 % 1014,8 hPa 0,0 l/m² 0 min 0 min 0 W/m² 6,4 km/h (2 Bft) 97,87 %
18.02.2026 04:24 2,1 °C 1,7 °C -1,7 °C 90 % 1014,9 hPa 0,0 l/m² 0 min 0 min 0 W/m² 12,9 km/h (3 Bft) 100,00 %
18.02.2026 04:26 2,0 °C 1,7 °C -1,7 °C 90 % 1014,9 hPa 0,0 l/m² 0 min 0 min 0 W/m² 12,9 km/h (3 Bft) 100,00 %
18.02.2026 04:28 2,0 °C 1,7 °C -1,7 °C 90 % 1014,9 hPa 0,0 l/m² 0 min 0 min 0 W/m² 9,7 km/h (2 Bft) 95,74 %
18.02.2026 04:30 2,0 °C 1,7 °C -1,7 °C 90 % 1015,0 hPa 0,0 l/m² 0 min 0 min 0 W/m² 9,7 km/h (2 Bft) 97,87 %
18.02.2026 04:32 1,9 °C 1,7 °C -1,7 °C 90 % 1014,9 hPa 0,0 l/m² 0 min 0 min 0 W/m² 6,4 km/h (2 Bft) 95,74 %
18.02.2026 04:34 1,9 °C 1,7 °C -1,7 °C 90 % 1014,9 hPa 0,0 l/m² 0 min 0 min 0 W/m² 6,4 km/h (2 Bft) 95,74 %
18.02.2026 04:36 1,9 °C 1,7 °C -1,7 °C 90 % 1014,8 hPa 0,0 l/m² 0 min 0 min 0 W/m² 6,4 km/h (2 Bft) 95,74 %
18.02.2026 04:38 1,9 °C 1,7 °C -1,7 °C 90 % 1014,9 hPa 0,0 l/m² 0 min 0 min 0 W/m² 12,9 km/h (3 Bft) 97,83 %
18.02.2026 04:40 1,9 °C 1,7 °C -1,7 °C 89 % 1014,9 hPa 0,0 l/m² 0 min 0 min 0 W/m² 6,4 km/h (2 Bft) 97,87 %
18.02.2026 04:42 1,9 °C 1,7 °C -1,7 °C 89 % 1015,0 hPa 0,0 l/m² 0 min 0 min 0 W/m² 6,4 km/h (2 Bft) 97,87 %
18.02.2026 04:44 1,9 °C 1,7 °C -1,7 °C 89 % 1015,0 hPa 0,0 l/m² 0 min 0 min 0 W/m² 9,7 km/h (2 Bft) 97,87 %
18.02.2026 04:46 1,9 °C 1,7 °C -1,7 °C 89 % 1015,0 hPa 0,0 l/m² 0 min 0 min 0 W/m² 6,4 km/h (2 Bft) 97,87 %
18.02.2026 04:48 1,9 °C 1,7 °C -1,7 °C 89 % 1015,0 hPa 0,0 l/m² 0 min 0 min 0 W/m² 9,7 km/h (2 Bft) 95,74 %
18.02.2026 04:50 1,9 °C 1,7 °C -1,7 °C 89 % 1015,0 hPa 0,0 l/m² 0 min 0 min 0 W/m² 6,4 km/h (2 Bft) 97,87 %
18.02.2026 04:52 1,9 °C 1,7 °C -1,7 °C 89 % 1015,0 hPa 0,0 l/m² 0 min 0 min 0 W/m² 3,2 km/h (1 Bft) 97,87 %
18.02.2026 04:54 1,9 °C 1,7 °C -1,7 °C 89 % 1015,0 hPa 0,0 l/m² 0 min 0 min 0 W/m² 6,4 km/h (2 Bft) 95,74 %
18.02.2026 04:56 1,9 °C 1,7 °C -1,7 °C 89 % 1015,0 hPa 0,0 l/m² 0 min 0 min 0 W/m² 12,9 km/h (3 Bft) 97,87 %
18.02.2026 04:58 1,9 °C 1,1 °C -1,7 °C 89 % 1015,0 hPa 0,0 l/m² 0 min 0 min 0 W/m² 6,4 km/h (2 Bft) 97,87 %
18.02.2026 05:00 1,9 °C 1,1 °C -1,7 °C 89 % 1014,9 hPa 0,0 l/m² 0 min 0 min 0 W/m² 6,4 km/h (2 Bft) 97,87 %
18.02.2026 05:02 1,9 °C 1,1 °C -1,7 °C 89 % 1014,9 hPa 0,0 l/m² 0 min 0 min 0 W/m² 9,7 km/h (2 Bft) 97,83 %
18.02.2026 05:04 1,9 °C 1,1 °C -1,7 °C 88 % 1014,9 hPa 0,0 l/m² 0 min 0 min 0 W/m² 9,7 km/h (2 Bft) 95,74 %
18.02.2026 05:06 1,9 °C 1,1 °C -1,7 °C 88 % 1014,9 hPa 0,0 l/m² 0 min 0 min 0 W/m² 9,7 km/h (2 Bft) 97,87 %
18.02.2026 05:08 1,8 °C 1,1 °C -1,7 °C 89 % 1014,9 hPa 0,0 l/m² 0 min 0 min 0 W/m² 16,1 km/h (3 Bft) 97,92 %
18.02.2026 05:10 1,8 °C 1,1 °C -1,7 °C 89 % 1014,9 hPa 0,0 l/m² 0 min 0 min 0 W/m² 9,7 km/h (2 Bft) 93,62 %
18.02.2026 05:12 1,8 °C 1,1 °C -1,7 °C 88 % 1014,9 hPa 0,0 l/m² 0 min 0 min 0 W/m² 6,4 km/h (2 Bft) 93,62 %
18.02.2026 05:14 1,8 °C 1,1 °C -1,7 °C 88 % 1014,9 hPa 0,0 l/m² 0 min 0 min 0 W/m² 6,4 km/h (2 Bft) 95,74 %
18.02.2026 05:16 1,8 °C 1,1 °C -1,7 °C 88 % 1014,9 hPa 0,0 l/m² 0 min 0 min 0 W/m² 6,4 km/h (2 Bft) 93,62 %
18.02.2026 05:18 1,8 °C 1,1 °C -1,7 °C 88 % 1014,9 hPa 0,0 l/m² 0 min 0 min 0 W/m² 12,9 km/h (3 Bft) 93,62 %
18.02.2026 05:20 1,8 °C 1,1 °C -1,7 °C 88 % 1014,8 hPa 0,0 l/m² 0 min 0 min 0 W/m² 12,9 km/h (3 Bft) 91,49 %
18.02.2026 05:22 1,8 °C 1,1 °C -1,7 °C 88 % 1014,8 hPa 0,0 l/m² 0 min 0 min 0 W/m² 9,7 km/h (2 Bft) 93,62 %
18.02.2026 05:24 1,8 °C 1,1 °C -1,7 °C 88 % 1014,9 hPa 0,0 l/m² 0 min 0 min 0 W/m² 6,4 km/h (2 Bft) 95,74 %
18.02.2026 05:26 1,8 °C 1,1 °C -1,7 °C 88 % 1014,9 hPa 0,0 l/m² 0 min 0 min 0 W/m² 6,4 km/h (2 Bft) 95,65 %
18.02.2026 05:28 1,8 °C 1,1 °C -1,7 °C 88 % 1014,8 hPa 0,0 l/m² 0 min 0 min 0 W/m² 6,4 km/h (2 Bft) 95,74 %
18.02.2026 05:30 1,8 °C 1,1 °C -1,7 °C 88 % 1014,8 hPa 0,0 l/m² 0 min 0 min 0 W/m² 9,7 km/h (2 Bft) 95,74 %
18.02.2026 05:32 1,8 °C 1,1 °C -1,7 °C 88 % 1014,8 hPa 0,0 l/m² 0 min 0 min 0 W/m² 3,2 km/h (1 Bft) 95,74 %
18.02.2026 05:34 1,8 °C 1,1 °C -1,7 °C 88 % 1014,9 hPa 0,0 l/m² 0 min 0 min 0 W/m² 6,4 km/h (2 Bft) 95,74 %
18.02.2026 05:36 1,8 °C 1,1 °C -1,7 °C 88 % 1014,9 hPa 0,0 l/m² 0 min 0 min 0 W/m² 3,2 km/h (1 Bft) 95,74 %
18.02.2026 05:38 1,8 °C 1,1 °C -2,2 °C 88 % 1014,8 hPa 0,0 l/m² 0 min 0 min 0 W/m² 9,7 km/h (2 Bft) 95,74 %
18.02.2026 05:40 1,8 °C 1,1 °C -2,2 °C 88 % 1014,9 hPa 0,0 l/m² 0 min 0 min 0 W/m² 9,7 km/h (2 Bft) 94,29 %
18.02.2026 05:42 1,8 °C 1,1 °C -2,2 °C 88 % 1014,9 hPa 0,0 l/m² 0 min 0 min 0 W/m² 3,2 km/h (1 Bft) 97,92 %
18.02.2026 05:44 1,8 °C 1,1 °C -2,2 °C 88 % 1014,8 hPa 0,0 l/m² 0 min 0 min 0 W/m² 0,0 km/h (0 Bft) 95,74 %
18.02.2026 05:46 1,8 °C 1,1 °C -2,2 °C 88 % 1014,8 hPa 0,0 l/m² 0 min 0 min 0 W/m² 3,2 km/h (1 Bft) 97,87 %
18.02.2026 05:48 1,8 °C 1,1 °C -2,2 °C 88 % 1014,8 hPa 0,0 l/m² 0 min 0 min 0 W/m² 6,4 km/h (2 Bft) 95,74 %
18.02.2026 05:50 1,8 °C 1,1 °C -2,2 °C 88 % 1014,8 hPa 0,0 l/m² 0 min 0 min 0 W/m² 6,4 km/h (2 Bft) 97,87 %
18.02.2026 05:52 1,8 °C 1,1 °C -2,2 °C 88 % 1014,8 hPa 0,0 l/m² 0 min 0 min 0 W/m² 3,2 km/h (1 Bft) 95,74 %
18.02.2026 05:54 1,8 °C 1,1 °C -2,2 °C 88 % 1014,8 hPa 0,0 l/m² 0 min 0 min 0 W/m² 0,0 km/h (0 Bft) 97,83 %
18.02.2026 05:56 1,7 °C 1,1 °C -2,2 °C 88 % 1014,9 hPa 0,0 l/m² 0 min 0 min 0 W/m² 3,2 km/h (1 Bft) 93,62 %
18.02.2026 05:58 1,7 °C 1,1 °C -2,2 °C 88 % 1014,9 hPa 0,0 l/m² 0 min 0 min 0 W/m² 3,2 km/h (1 Bft) 100,00 %
18.02.2026 06:00 1,7 °C 1,1 °C -2,2 °C 88 % 1014,9 hPa 0,0 l/m² 0 min 0 min 0 W/m² 6,4 km/h (2 Bft) 100,00 %
18.02.2026 06:02 1,7 °C 1,1 °C -2,2 °C 88 % 1014,9 hPa 0,0 l/m² 0 min 0 min 0 W/m² 3,2 km/h (1 Bft) 95,74 %
18.02.2026 06:04 1,7 °C 1,1 °C -2,2 °C 88 % 1014,9 hPa 0,0 l/m² 0 min 0 min 0 W/m² 3,2 km/h (1 Bft) 100,00 %
18.02.2026 06:07 1,7 °C 1,1 °C -2,2 °C 88 % 1014,9 hPa 0,0 l/m² 0 min 0 min 0 W/m² 3,2 km/h (1 Bft) 100,00 %
18.02.2026 06:10 1,7 °C 1,1 °C -2,2 °C 88 % 1014,9 hPa 0,0 l/m² 0 min 0 min 0 W/m² 0,0 km/h (0 Bft) 97,07 %
18.02.2026 06:12 1,7 °C 1,1 °C -2,2 °C 88 % 1014,9 hPa 0,0 l/m² 0 min 0 min 0 W/m² 0,0 km/h (0 Bft) 100,00 %
18.02.2026 06:14 1,7 °C 1,1 °C -2,2 °C 88 % 1014,9 hPa 0,0 l/m² 0 min 0 min 0 W/m² 0,0 km/h (0 Bft) 100,00 %
18.02.2026 06:16 1,7 °C 1,1 °C -2,2 °C 88 % 1014,9 hPa 0,0 l/m² 0 min 0 min 0 W/m² 0,0 km/h (0 Bft) 97,87 %
18.02.2026 06:18 1,7 °C 1,1 °C -2,2 °C 88 % 1014,8 hPa 0,0 l/m² 0 min 0 min 0 W/m² 0,0 km/h (0 Bft) 100,00 %
18.02.2026 06:20 1,7 °C 1,1 °C -2,2 °C 88 % 1014,8 hPa 0,0 l/m² 0 min 0 min 0 W/m² 0,0 km/h (0 Bft) 100,00 %
18.02.2026 06:22 1,7 °C 1,1 °C -2,2 °C 88 % 1014,8 hPa 0,0 l/m² 0 min 0 min 0 W/m² 0,0 km/h (0 Bft) 97,87 %
18.02.2026 06:24 1,7 °C 1,1 °C -2,2 °C 88 % 1014,8 hPa 0,0 l/m² 0 min 0 min 0 W/m² 6,4 km/h (2 Bft) 97,87 %
18.02.2026 06:26 1,6 °C 1,1 °C -2,2 °C 88 % 1014,8 hPa 0,0 l/m² 0 min 0 min 0 W/m² 6,4 km/h (2 Bft) 100,00 %
18.02.2026 06:28 1,6 °C 1,1 °C -2,2 °C 88 % 1014,8 hPa 0,0 l/m² 0 min 0 min 0 W/m² 0,0 km/h (0 Bft) 100,00 %
18.02.2026 06:30 1,6 °C 1,1 °C -2,2 °C 88 % 1014,8 hPa 0,0 l/m² 0 min 0 min 0 W/m² 0,0 km/h (0 Bft) 100,00 %
18.02.2026 06:32 1,6 °C 1,1 °C -2,2 °C 88 % 1014,8 hPa 0,0 l/m² 0 min 0 min 0 W/m² 0,0 km/h (0 Bft) 97,87 %
18.02.2026 06:34 1,6 °C 1,1 °C -2,2 °C 88 % 1014,9 hPa 0,0 l/m² 0 min 0 min 0 W/m² 0,0 km/h (0 Bft) 100,00 %
18.02.2026 06:36 1,6 °C 1,1 °C -2,2 °C 88 % 1014,9 hPa 0,0 l/m² 0 min 0 min 0 W/m² 0,0 km/h (0 Bft) 100,00 %
18.02.2026 06:38 1,6 °C 1,1 °C -2,2 °C 88 % 1014,9 hPa 0,0 l/m² 0 min 0 min 0 W/m² 0,0 km/h (0 Bft) 100,00 %
18.02.2026 06:40 1,6 °C 1,1 °C -2,2 °C 88 % 1014,8 hPa 0,0 l/m² 0 min 0 min 0 W/m² 0,0 km/h (0 Bft) 100,00 %
18.02.2026 06:42 1,6 °C 1,1 °C -2,2 °C 88 % 1014,9 hPa 0,0 l/m² 0 min 0 min 0 W/m² 0,0 km/h (0 Bft) 100,00 %
18.02.2026 06:44 1,6 °C 1,1 °C -2,2 °C 88 % 1014,8 hPa 0,0 l/m² 0 min 0 min 0 W/m² 0,0 km/h (0 Bft) 100,00 %
18.02.2026 06:46 1,6 °C 1,1 °C -2,2 °C 88 % 1014,8 hPa 0,0 l/m² 0 min 0 min 0 W/m² 0,0 km/h (0 Bft) 100,00 %
18.02.2026 06:48 1,6 °C 1,1 °C -2,2 °C 88 % 1014,8 hPa 0,0 l/m² 0 min 0 min 0 W/m² 0,0 km/h (0 Bft) 97,87 %
18.02.2026 06:50 1,6 °C 1,1 °C -2,2 °C 88 % 1014,8 hPa 0,0 l/m² 0 min 0 min 0 W/m² 0,0 km/h (0 Bft) 97,87 %
18.02.2026 06:52 1,6 °C 1,1 °C -2,2 °C 88 % 1014,9 hPa 0,0 l/m² 0 min 0 min 0 W/m² 0,0 km/h (0 Bft) 100,00 %
18.02.2026 06:54 1,6 °C 1,1 °C -2,2 °C 88 % 1014,8 hPa 0,0 l/m² 0 min 0 min 0 W/m² 0,0 km/h (0 Bft) 97,87 %
18.02.2026 06:56 1,6 °C 1,1 °C -2,2 °C 88 % 1014,9 hPa 0,0 l/m² 0 min 0 min 0 W/m² 0,0 km/h (0 Bft) 100,00 %
18.02.2026 06:58 1,6 °C 1,1 °C -2,2 °C 88 % 1014,9 hPa 0,0 l/m² 0 min 0 min 0 W/m² 0,0 km/h (0 Bft) 100,00 %
18.02.2026 07:00 1,6 °C 1,1 °C -2,2 °C 88 % 1014,8 hPa 0,0 l/m² 0 min 0 min 0 W/m² 0,0 km/h (0 Bft) 97,87 %
18.02.2026 07:02 1,6 °C 1,1 °C -2,2 °C 88 % 1014,8 hPa 0,0 l/m² 0 min 0 min 0 W/m² 0,0 km/h (0 Bft) 95,65 %
18.02.2026 07:04 1,6 °C 1,1 °C -2,2 °C 88 % 1014,8 hPa 0,0 l/m² 0 min 0 min 0 W/m² 0,0 km/h (0 Bft) 97,92 %
18.02.2026 07:06 1,6 °C 1,1 °C -2,2 °C 88 % 1014,8 hPa 0,0 l/m² 0 min 0 min 0 W/m² 0,0 km/h (0 Bft) 97,87 %
18.02.2026 07:08 1,6 °C 1,1 °C -2,2 °C 88 % 1014,9 hPa 0,0 l/m² 0 min 0 min 0 W/m² 0,0 km/h (0 Bft) 97,87 %
18.02.2026 07:10 1,6 °C 1,1 °C -2,2 °C 88 % 1014,9 hPa 0,0 l/m² 0 min 0 min 0 W/m² 0,0 km/h (0 Bft) 97,14 %
18.02.2026 07:12 1,6 °C 1,1 °C -2,2 °C 88 % 1014,8 hPa 0,0 l/m² 0 min 0 min 0 W/m² 0,0 km/h (0 Bft) 97,87 %
18.02.2026 07:14 1,6 °C 1,1 °C -2,2 °C 88 % 1014,8 hPa 0,0 l/m² 0 min 0 min 0 W/m² 0,0 km/h (0 Bft) 95,74 %
18.02.2026 07:16 1,6 °C 1,1 °C -2,2 °C 88 % 1014,8 hPa 0,0 l/m² 0 min 0 min 0 W/m² 0,0 km/h (0 Bft) 95,74 %
18.02.2026 07:18 1,5 °C 1,1 °C -2,2 °C 88 % 1014,8 hPa 0,0 l/m² 0 min 0 min 0 W/m² 0,0 km/h (0 Bft) 97,87 %
18.02.2026 07:20 1,5 °C 0,6 °C -2,2 °C 88 % 1014,8 hPa 0,0 l/m² 0 min 0 min 0 W/m² 0,0 km/h (0 Bft) 97,87 %
18.02.2026 07:22 1,5 °C 0,6 °C -2,2 °C 88 % 1014,8 hPa 0,0 l/m² 0 min 0 min 0 W/m² 0,0 km/h (0 Bft) 95,74 %
18.02.2026 07:24 1,5 °C 0,6 °C -2,2 °C 88 % 1014,8 hPa 0,0 l/m² 0 min 0 min 0 W/m² 0,0 km/h (0 Bft) 96,00 %
18.02.2026 07:26 1,5 °C 0,6 °C -2,2 °C 88 % 1014,8 hPa 0,0 l/m² 0 min 0 min 0 W/m² 0,0 km/h (0 Bft) 97,87 %
18.02.2026 07:28 1,5 °C 0,6 °C -2,2 °C 88 % 1014,8 hPa 0,0 l/m² 0 min 0 min 0 W/m² 0,0 km/h (0 Bft) 100,00 %
18.02.2026 07:30 1,5 °C 0,6 °C -2,2 °C 88 % 1014,8 hPa 0,0 l/m² 0 min 0 min 0 W/m² 0,0 km/h (0 Bft) 100,00 %
18.02.2026 07:32 1,5 °C 0,6 °C -2,2 °C 88 % 1014,8 hPa 0,0 l/m² 0 min 0 min 0 W/m² 0,0 km/h (0 Bft) 97,87 %
18.02.2026 07:34 1,5 °C 0,6 °C -2,2 °C 88 % 1014,8 hPa 0,0 l/m² 0 min 0 min 0 W/m² 0,0 km/h (0 Bft) 100,00 %
18.02.2026 07:36 1,5 °C 0,6 °C -2,2 °C 88 % 1014,8 hPa 0,0 l/m² 0 min 0 min 0 W/m² 0,0 km/h (0 Bft) 100,00 %
18.02.2026 07:38 1,5 °C 0,6 °C -2,2 °C 88 % 1014,8 hPa 0,0 l/m² 0 min 0 min 0 W/m² 0,0 km/h (0 Bft) 97,87 %
18.02.2026 07:40 1,5 °C 0,6 °C -2,2 °C 88 % 1014,8 hPa 0,0 l/m² 0 min 0 min 0 W/m² 0,0 km/h (0 Bft) 97,87 %
18.02.2026 07:42 1,5 °C 0,6 °C -2,2 °C 88 % 1014,8 hPa 0,0 l/m² 0 min 0 min 0 W/m² 0,0 km/h (0 Bft) 95,74 %
18.02.2026 07:44 1,5 °C 0,6 °C -2,2 °C 88 % 1014,8 hPa 0,0 l/m² 0 min 0 min 0 W/m² 3,2 km/h (1 Bft) 95,74 %
18.02.2026 07:46 1,5 °C 0,6 °C -2,2 °C 88 % 1014,8 hPa 0,0 l/m² 0 min 0 min 0 W/m² 3,2 km/h (1 Bft) 95,74 %
18.02.2026 07:48 1,4 °C 1,1 °C -2,2 °C 88 % 1014,8 hPa 0,0 l/m² 0 min 0 min 0 W/m² 0,0 km/h (0 Bft) 93,62 %
18.02.2026 07:50 1,5 °C 1,1 °C -2,2 °C 88 % 1014,8 hPa 0,0 l/m² 0 min 0 min 0 W/m² 0,0 km/h (0 Bft) 93,62 %
18.02.2026 07:52 1,4 °C 1,1 °C -2,2 °C 88 % 1014,8 hPa 0,0 l/m² 0 min 0 min 0 W/m² 0,0 km/h (0 Bft) 95,74 %
18.02.2026 07:54 1,4 °C 1,1 °C -2,2 °C 88 % 1014,8 hPa 0,0 l/m² 0 min 0 min 1 W/m² 0,0 km/h (0 Bft) 95,65 %
18.02.2026 07:56 1,4 °C 1,1 °C -2,2 °C 88 % 1014,8 hPa 0,0 l/m² 0 min 0 min 5 W/m² 0,0 km/h (0 Bft) 95,74 %
18.02.2026 07:58 1,4 °C 1,1 °C -2,2 °C 88 % 1014,9 hPa 0,0 l/m² 0 min 0 min 5 W/m² 0,0 km/h (0 Bft) 93,62 %
18.02.2026 08:00 1,4 °C 1,1 °C -2,2 °C 88 % 1014,9 hPa 0,0 l/m² 0 min 0 min 7 W/m² 0,0 km/h (0 Bft) 95,74 %
18.02.2026 08:02 1,4 °C 1,1 °C -2,2 °C 89 % 1014,9 hPa 0,0 l/m² 0 min 0 min 8 W/m² 0,0 km/h (0 Bft) 95,74 %
18.02.2026 08:04 1,4 °C 1,1 °C -2,2 °C 89 % 1014,9 hPa 0,0 l/m² 0 min 0 min 9 W/m² 0,0 km/h (0 Bft) 93,75 %
18.02.2026 08:06 1,4 °C 1,1 °C -2,2 °C 89 % 1014,9 hPa 0,0 l/m² 0 min 0 min 11 W/m² 0,0 km/h (0 Bft) 93,62 %
18.02.2026 08:08 1,4 °C 1,1 °C -2,2 °C 89 % 1014,9 hPa 0,0 l/m² 0 min 0 min 11 W/m² 0,0 km/h (0 Bft) 95,74 %
18.02.2026 08:10 1,4 °C 1,1 °C -2,2 °C 89 % 1014,9 hPa 0,0 l/m² 0 min 0 min 12 W/m² 0,0 km/h (0 Bft) 95,74 %
18.02.2026 08:12 1,4 °C 1,1 °C -2,2 °C 89 % 1014,8 hPa 0,0 l/m² 0 min 0 min 12 W/m² 0,0 km/h (0 Bft) 93,62 %
18.02.2026 08:14 1,4 °C 1,1 °C -2,2 °C 89 % 1014,8 hPa 0,0 l/m² 0 min 0 min 12 W/m² 0,0 km/h (0 Bft) 96,36 %
18.02.2026 08:16 1,4 °C 1,1 °C -2,2 °C 89 % 1014,8 hPa 0,0 l/m² 0 min 0 min 14 W/m² 0,0 km/h (0 Bft) 95,74 %
18.02.2026 08:21 1,4 °C 1,1 °C -2,2 °C 89 % 1014,7 hPa 0,0 l/m² 0 min 0 min 15 W/m² 0,0 km/h (0 Bft) 95,71 %
18.02.2026 08:22 1,4 °C 1,1 °C -2,2 °C 89 % 1014,7 hPa 0,0 l/m² 0 min 0 min 18 W/m² 0,0 km/h (0 Bft) 95,83 %
18.02.2026 08:24 1,4 °C 1,1 °C -2,2 °C 89 % 1014,7 hPa 0,0 l/m² 0 min 0 min 19 W/m² 0,0 km/h (0 Bft) 97,83 %
18.02.2026 08:29 1,4 °C 1,1 °C -2,2 °C 89 % 1014,8 hPa 0,0 l/m² 0 min 0 min 21 W/m² 0,0 km/h (0 Bft) 100,00 %
18.02.2026 08:30 1,5 °C 1,1 °C -2,2 °C 89 % 1014,8 hPa 0,0 l/m² 0 min 0 min 21 W/m² 0,0 km/h (0 Bft) 86,96 %
18.02.2026 08:32 1,5 °C 1,1 °C -2,2 °C 89 % 1014,8 hPa 0,0 l/m² 0 min 0 min 23 W/m² 0,0 km/h (0 Bft) 97,87 %
18.02.2026 08:34 1,5 °C 1,1 °C -1,7 °C 89 % 1014,8 hPa 0,0 l/m² 0 min 0 min 25 W/m² 0,0 km/h (0 Bft) 97,87 %
18.02.2026 08:36 1,5 °C 1,1 °C -1,7 °C 89 % 1014,9 hPa 0,0 l/m² 0 min 0 min 26 W/m² 0,0 km/h (0 Bft) 93,62 %
18.02.2026 08:38 1,5 °C 1,1 °C -1,7 °C 89 % 1014,8 hPa 0,0 l/m² 0 min 0 min 26 W/m² 0,0 km/h (0 Bft) 100,00 %
18.02.2026 08:40 1,6 °C 1,7 °C -1,7 °C 89 % 1014,8 hPa 0,0 l/m² 0 min 0 min 26 W/m² 0,0 km/h (0 Bft) 100,00 %
18.02.2026 08:42 1,6 °C 1,7 °C -1,7 °C 89 % 1014,9 hPa 0,0 l/m² 0 min 0 min 27 W/m² 0,0 km/h (0 Bft) 100,00 %
18.02.2026 08:44 1,6 °C 1,7 °C -1,7 °C 89 % 1014,9 hPa 0,0 l/m² 0 min 0 min 30 W/m² 0,0 km/h (0 Bft) 97,87 %
18.02.2026 08:46 1,6 °C 1,7 °C -1,7 °C 89 % 1014,8 hPa 0,0 l/m² 0 min 0 min 33 W/m² 0,0 km/h (0 Bft) 97,87 %
18.02.2026 08:48 1,6 °C 1,7 °C -1,7 °C 89 % 1014,8 hPa 0,0 l/m² 0 min 0 min 35 W/m² 0,0 km/h (0 Bft) 97,87 %
18.02.2026 08:50 1,6 °C 1,7 °C -1,7 °C 89 % 1014,8 hPa 0,0 l/m² 0 min 0 min 35 W/m² 0,0 km/h (0 Bft) 95,65 %
18.02.2026 08:52 1,6 °C 1,7 °C -1,7 °C 89 % 1014,8 hPa 0,0 l/m² 0 min 0 min 35 W/m² 0,0 km/h (0 Bft) 97,87 %
18.02.2026 08:54 1,7 °C 1,7 °C -1,7 °C 89 % 1014,8 hPa 0,0 l/m² 0 min 0 min 35 W/m² 6,4 km/h (2 Bft) 97,87 %
18.02.2026 08:56 1,7 °C 1,7 °C -1,7 °C 90 % 1014,8 hPa 0,0 l/m² 0 min 0 min 36 W/m² 6,4 km/h (2 Bft) 97,87 %
18.02.2026 08:58 1,7 °C 1,7 °C -1,7 °C 89 % 1014,8 hPa 0,0 l/m² 0 min 0 min 37 W/m² 3,2 km/h (1 Bft) 95,74 %
18.02.2026 09:00 1,7 °C 1,7 °C -1,7 °C 89 % 1014,8 hPa 0,0 l/m² 0 min 0 min 38 W/m² 3,2 km/h (1 Bft) 95,74 %
18.02.2026 09:02 1,7 °C 1,7 °C -1,7 °C 89 % 1014,8 hPa 0,0 l/m² 0 min 0 min 42 W/m² 0,0 km/h (0 Bft) 97,87 %
18.02.2026 09:04 1,7 °C 1,7 °C -1,7 °C 89 % 1014,8 hPa 0,0 l/m² 0 min 0 min 47 W/m² 0,0 km/h (0 Bft) 97,87 %
18.02.2026 09:06 1,7 °C 1,7 °C -1,7 °C 89 % 1014,8 hPa 0,0 l/m² 0 min 0 min 50 W/m² 0,0 km/h (0 Bft) 96,55 %
18.02.2026 09:08 1,7 °C 2,2 °C -1,7 °C 89 % 1014,8 hPa 0,0 l/m² 0 min 0 min 53 W/m² 0,0 km/h (0 Bft) 97,30 %
18.02.2026 09:10 1,8 °C 2,2 °C -1,7 °C 89 % 1014,8 hPa 0,0 l/m² 0 min 0 min 56 W/m² 0,0 km/h (0 Bft) 97,83 %
18.02.2026 09:12 1,8 °C 2,2 °C -1,7 °C 90 % 1014,8 hPa 0,0 l/m² 0 min 0 min 60 W/m² 6,4 km/h (2 Bft) 97,87 %
18.02.2026 09:14 1,8 °C 2,2 °C -1,7 °C 89 % 1014,8 hPa 0,0 l/m² 0 min 0 min 63 W/m² 3,2 km/h (1 Bft) 97,87 %
18.02.2026 09:16 1,8 °C 2,2 °C -1,7 °C 89 % 1014,7 hPa 0,0 l/m² 0 min 0 min 65 W/m² 0,0 km/h (0 Bft) 97,87 %
18.02.2026 09:18 1,8 °C 2,2 °C -1,7 °C 89 % 1014,7 hPa 0,0 l/m² 0 min 0 min 68 W/m² 3,2 km/h (1 Bft) 100,00 %
18.02.2026 09:20 1,8 °C 2,2 °C -1,7 °C 89 % 1014,7 hPa 0,0 l/m² 0 min 0 min 70 W/m² 6,4 km/h (2 Bft) 100,00 %
18.02.2026 09:22 1,9 °C 2,2 °C -1,7 °C 89 % 1014,6 hPa 0,0 l/m² 0 min 0 min 72 W/m² 3,2 km/h (1 Bft) 100,00 %
18.02.2026 09:24 1,9 °C 2,2 °C -1,7 °C 89 % 1014,5 hPa 0,0 l/m² 0 min 0 min 70 W/m² 3,2 km/h (1 Bft) 97,87 %
18.02.2026 09:26 1,9 °C 2,2 °C -1,7 °C 89 % 1014,5 hPa 0,0 l/m² 0 min 0 min 72 W/m² 3,2 km/h (1 Bft) 100,00 %
18.02.2026 09:28 1,9 °C 2,2 °C -1,7 °C 89 % 1014,4 hPa 0,0 l/m² 0 min 0 min 72 W/m² 6,4 km/h (2 Bft) 100,00 %
18.02.2026 09:30 1,9 °C 2,2 °C -1,7 °C 89 % 1014,4 hPa 0,0 l/m² 0 min 0 min 75 W/m² 3,2 km/h (1 Bft) 100,00 %
18.02.2026 09:32 1,9 °C 2,2 °C -1,7 °C 89 % 1014,4 hPa 0,0 l/m² 0 min 0 min 78 W/m² 3,2 km/h (1 Bft) 100,00 %
18.02.2026 09:34 2,0 °C 2,2 °C -1,1 °C 89 % 1014,4 hPa 0,0 l/m² 0 min 0 min 80 W/m² 3,2 km/h (1 Bft) 100,00 %
18.02.2026 09:36 2,0 °C 2,8 °C -1,1 °C 89 % 1014,4 hPa 0,0 l/m² 0 min 0 min 80 W/m² 3,2 km/h (1 Bft) 97,87 %
18.02.2026 09:38 2,0 °C 2,8 °C -1,1 °C 89 % 1014,3 hPa 0,0 l/m² 0 min 0 min 77 W/m² 6,4 km/h (2 Bft) 100,00 %
18.02.2026 09:40 2,0 °C 2,8 °C -1,1 °C 89 % 1014,4 hPa 0,0 l/m² 0 min 0 min 77 W/m² 3,2 km/h (1 Bft) 100,00 %
18.02.2026 09:42 2,1 °C 2,8 °C -1,1 °C 89 % 1014,4 hPa 0,0 l/m² 0 min 0 min 80 W/m² 3,2 km/h (1 Bft) 97,87 %
18.02.2026 09:44 2,1 °C 2,8 °C -1,1 °C 89 % 1014,4 hPa 0,0 l/m² 0 min 0 min 85 W/m² 3,2 km/h (1 Bft) 100,00 %
18.02.2026 09:46 2,1 °C 2,8 °C -1,1 °C 89 % 1014,4 hPa 0,0 l/m² 0 min 0 min 89 W/m² 3,2 km/h (1 Bft) 100,00 %
18.02.2026 09:48 2,1 °C 2,8 °C -1,1 °C 89 % 1014,4 hPa 0,0 l/m² 0 min 0 min 92 W/m² 0,0 km/h (0 Bft) 95,74 %
18.02.2026 09:50 2,1 °C 2,8 °C -1,1 °C 89 % 1014,4 hPa 0,0 l/m² 0 min 0 min 92 W/m² 3,2 km/h (1 Bft) 97,87 %
18.02.2026 09:52 2,2 °C 2,8 °C -1,1 °C 89 % 1014,4 hPa 0,0 l/m² 0 min 0 min 90 W/m² 3,2 km/h (1 Bft) 100,00 %
18.02.2026 09:54 2,2 °C 2,8 °C -1,1 °C 89 % 1014,4 hPa 0,0 l/m² 0 min 0 min 88 W/m² 3,2 km/h (1 Bft) 97,87 %
18.02.2026 09:56 2,2 °C 2,8 °C -1,1 °C 89 % 1014,3 hPa 0,0 l/m² 0 min 0 min 88 W/m² 0,0 km/h (0 Bft) 100,00 %
18.02.2026 09:58 2,3 °C 2,8 °C -1,1 °C 89 % 1014,3 hPa 0,0 l/m² 0 min 0 min 91 W/m² 0,0 km/h (0 Bft) 97,87 %
18.02.2026 10:00 2,3 °C 2,8 °C -1,1 °C 89 % 1014,3 hPa 0,0 l/m² 0 min 0 min 95 W/m² 6,4 km/h (2 Bft) 100,00 %
18.02.2026 10:02 2,3 °C 2,8 °C -1,1 °C 89 % 1014,2 hPa 0,0 l/m² 0 min 0 min 95 W/m² 3,2 km/h (1 Bft) 95,74 %
18.02.2026 10:04 2,3 °C 2,8 °C -1,1 °C 89 % 1014,2 hPa 0,0 l/m² 0 min 0 min 94 W/m² 3,2 km/h (1 Bft) 97,87 %
18.02.2026 10:06 2,4 °C 2,8 °C -1,1 °C 89 % 1014,2 hPa 0,0 l/m² 0 min 0 min 97 W/m² 6,4 km/h (2 Bft) 97,87 %
18.02.2026 10:08 2,4 °C 2,8 °C -1,1 °C 89 % 1014,2 hPa 0,0 l/m² 0 min 0 min 95 W/m² 3,2 km/h (1 Bft) 97,83 %
18.02.2026 10:10 2,4 °C 2,8 °C -1,1 °C 88 % 1014,2 hPa 0,0 l/m² 0 min 0 min 92 W/m² 3,2 km/h (1 Bft) 97,87 %
18.02.2026 10:12 2,4 °C 2,8 °C -1,1 °C 88 % 1014,2 hPa 0,0 l/m² 0 min 0 min 90 W/m² 6,4 km/h (2 Bft) 97,87 %
18.02.2026 10:14 2,4 °C 2,8 °C -1,1 °C 88 % 1014,1 hPa 0,0 l/m² 0 min 0 min 87 W/m² 3,2 km/h (1 Bft) 97,87 %
18.02.2026 10:16 2,4 °C 2,8 °C -1,1 °C 88 % 1014,1 hPa 0,0 l/m² 0 min 0 min 84 W/m² 3,2 km/h (1 Bft) 93,62 %
18.02.2026 10:18 2,4 °C 2,8 °C -1,1 °C 88 % 1014,0 hPa 0,0 l/m² 0 min 0 min 83 W/m² 9,7 km/h (2 Bft) 97,87 %
18.02.2026 10:20 2,4 °C 2,8 °C -1,1 °C 88 % 1014,0 hPa 0,0 l/m² 0 min 0 min 82 W/m² 6,4 km/h (2 Bft) 97,87 %
18.02.2026 10:22 2,4 °C 2,8 °C -1,1 °C 87 % 1014,0 hPa 0,0 l/m² 0 min 0 min 80 W/m² 6,4 km/h (2 Bft) 97,87 %
18.02.2026 10:24 2,4 °C 2,8 °C -1,1 °C 87 % 1014,1 hPa 0,0 l/m² 0 min 0 min 79 W/m² 6,4 km/h (2 Bft) 95,74 %
18.02.2026 10:26 2,5 °C 2,8 °C -1,1 °C 87 % 1014,0 hPa 0,0 l/m² 0 min 0 min 78 W/m² 6,4 km/h (2 Bft) 97,87 %
18.02.2026 10:28 2,5 °C 2,8 °C -1,1 °C 87 % 1014,0 hPa 0,0 l/m² 0 min 0 min 76 W/m² 6,4 km/h (2 Bft) 97,87 %
18.02.2026 10:30 2,5 °C 2,8 °C -1,1 °C 87 % 1014,0 hPa 0,0 l/m² 0 min 0 min 76 W/m² 6,4 km/h (2 Bft) 97,87 %
18.02.2026 10:32 2,6 °C 2,8 °C -1,1 °C 87 % 1013,9 hPa 0,0 l/m² 0 min 0 min 77 W/m² 3,2 km/h (1 Bft) 97,83 %
18.02.2026 10:34 2,6 °C 2,8 °C -1,1 °C 87 % 1013,9 hPa 0,0 l/m² 0 min 0 min 77 W/m² 3,2 km/h (1 Bft) 80,85 %
18.02.2026 10:36 2,6 °C 2,8 °C -1,1 °C 86 % 1014,0 hPa 0,0 l/m² 0 min 0 min 73 W/m² 6,4 km/h (2 Bft) 72,34 %
18.02.2026 10:38 2,6 °C 2,8 °C -1,1 °C 86 % 1014,0 hPa 0,0 l/m² 0 min 0 min 69 W/m² 6,4 km/h (2 Bft) 97,87 %
18.02.2026 10:40 2,6 °C 2,8 °C -1,1 °C 86 % 1013,9 hPa 0,0 l/m² 0 min 0 min 66 W/m² 3,2 km/h (1 Bft) 95,74 %
18.02.2026 10:42 2,6 °C 2,8 °C -1,1 °C 86 % 1013,9 hPa 0,0 l/m² 0 min 0 min 67 W/m² 6,4 km/h (2 Bft) 93,62 %
18.02.2026 10:44 2,6 °C 2,8 °C -1,1 °C 86 % 1013,9 hPa 0,0 l/m² 0 min 0 min 70 W/m² 3,2 km/h (1 Bft) 93,62 %
18.02.2026 10:46 2,6 °C 2,8 °C -1,1 °C 86 % 1013,9 hPa 0,0 l/m² 0 min 0 min 78 W/m² 6,4 km/h (2 Bft) 91,49 %
18.02.2026 10:48 2,6 °C 2,8 °C -1,1 °C 86 % 1013,9 hPa 0,0 l/m² 0 min 0 min 85 W/m² 6,4 km/h (2 Bft) 95,74 %
18.02.2026 10:50 2,6 °C 2,8 °C -1,1 °C 85 % 1013,9 hPa 0,0 l/m² 0 min 0 min 91 W/m² 6,4 km/h (2 Bft) 93,62 %
18.02.2026 10:52 2,6 °C 2,8 °C -1,1 °C 85 % 1013,9 hPa 0,0 l/m² 0 min 0 min 100 W/m² 6,4 km/h (2 Bft) 95,65 %
18.02.2026 10:54 2,6 °C 3,3 °C -0,6 °C 85 % 1013,9 hPa 0,0 l/m² 0 min 0 min 123 W/m² 6,4 km/h (2 Bft) 95,74 %
18.02.2026 10:56 2,7 °C 3,9 °C -0,6 °C 85 % 1014,0 hPa 0,0 l/m² 0 min 0 min 163 W/m² 6,4 km/h (2 Bft) 93,62 %
18.02.2026 10:58 2,7 °C 5,0 °C -0,6 °C 85 % 1014,0 hPa 0,0 l/m² 2 min 0 min 204 W/m² 3,2 km/h (1 Bft) 93,62 %
18.02.2026 11:00 2,8 °C 5,0 °C 0,0 °C 85 % 1014,0 hPa 0,0 l/m² 2 min 0 min 234 W/m² 12,9 km/h (3 Bft) 95,74 %
18.02.2026 11:02 2,8 °C 5,6 °C 0,0 °C 84 % 1013,9 hPa 0,0 l/m² 2 min 0 min 267 W/m² 12,9 km/h (3 Bft) 95,74 %
18.02.2026 11:04 2,9 °C 6,1 °C 0,0 °C 84 % 1013,9 hPa 0,0 l/m² 2 min 0 min 267 W/m² 9,7 km/h (2 Bft) 95,74 %
18.02.2026 11:06 3,0 °C 6,1 °C 0,0 °C 84 % 1013,9 hPa 0,0 l/m² 2 min 0 min 247 W/m² 9,7 km/h (2 Bft) 91,49 %
18.02.2026 11:08 3,1 °C 6,1 °C 0,6 °C 83 % 1013,9 hPa 0,0 l/m² 2 min 0 min 282 W/m² 16,1 km/h (3 Bft) 95,83 %
18.02.2026 11:10 3,1 °C 6,7 °C 0,6 °C 83 % 1013,8 hPa 0,0 l/m² 2 min 0 min 248 W/m² 16,1 km/h (3 Bft) 95,74 %
18.02.2026 11:12 3,2 °C 6,7 °C 0,6 °C 82 % 1013,8 hPa 0,0 l/m² 2 min 0 min 263 W/m² 6,4 km/h (2 Bft) 95,74 %
18.02.2026 11:14 3,3 °C 6,1 °C 0,6 °C 82 % 1013,7 hPa 0,0 l/m² 2 min 0 min 244 W/m² 16,1 km/h (3 Bft) 97,87 %
18.02.2026 11:16 3,3 °C 6,7 °C 0,6 °C 81 % 1013,7 hPa 0,0 l/m² 2 min 0 min 250 W/m² 12,9 km/h (3 Bft) 93,48 %
18.02.2026 11:18 3,3 °C 7,2 °C 1,1 °C 81 % 1013,7 hPa 0,0 l/m² 2 min 0 min 277 W/m² 12,9 km/h (3 Bft) 97,87 %
18.02.2026 11:20 3,4 °C 7,8 °C 1,7 °C 81 % 1013,7 hPa 0,0 l/m² 2 min 0 min 294 W/m² 12,9 km/h (3 Bft) 95,74 %
18.02.2026 11:22 3,5 °C 8,3 °C 1,7 °C 81 % 1013,7 hPa 0,0 l/m² 2 min 0 min 301 W/m² 9,7 km/h (2 Bft) 97,87 %
18.02.2026 11:24 3,6 °C 9,4 °C 2,2 °C 81 % 1013,6 hPa 0,0 l/m² 2 min 0 min 294 W/m² 12,9 km/h (3 Bft) 97,87 %
18.02.2026 11:26 3,7 °C 10,0 °C 2,2 °C 81 % 1013,6 hPa 0,0 l/m² 2 min 0 min 310 W/m² 12,9 km/h (3 Bft) 97,87 %
18.02.2026 11:28 3,8 °C 10,0 °C 2,2 °C 81 % 1013,6 hPa 0,0 l/m² 2 min 0 min 326 W/m² 9,7 km/h (2 Bft) 97,87 %
18.02.2026 11:30 3,9 °C 10,0 °C 2,8 °C 81 % 1013,6 hPa 0,0 l/m² 2 min 0 min 322 W/m² 9,7 km/h (2 Bft) 100,00 %
18.02.2026 11:32 4,1 °C 10,0 °C 2,8 °C 81 % 1013,7 hPa 0,0 l/m² 2 min 0 min 308 W/m² 9,7 km/h (2 Bft) 100,00 %
18.02.2026 11:34 4,1 °C 9,4 °C 2,2 °C 80 % 1013,7 hPa 0,0 l/m² 2 min 0 min 293 W/m² 12,9 km/h (3 Bft) 97,87 %
18.02.2026 11:36 4,2 °C 8,9 °C 2,2 °C 80 % 1013,7 hPa 0,0 l/m² 2 min 0 min 284 W/m² 9,7 km/h (2 Bft) 97,87 %
18.02.2026 11:38 4,2 °C 8,3 °C 1,7 °C 80 % 1013,7 hPa 0,0 l/m² 2 min 0 min 276 W/m² 9,7 km/h (2 Bft) 100,00 %
18.02.2026 11:40 4,2 °C 8,3 °C 2,2 °C 79 % 1013,7 hPa 0,0 l/m² 2 min 0 min 287 W/m² 12,9 km/h (3 Bft) 100,00 %
18.02.2026 11:42 4,2 °C 8,3 °C 1,7 °C 79 % 1013,6 hPa 0,0 l/m² 2 min 0 min 294 W/m² 9,7 km/h (2 Bft) 100,00 %
18.02.2026 11:44 4,2 °C 8,3 °C 1,7 °C 79 % 1013,6 hPa 0,0 l/m² 2 min 0 min 286 W/m² 9,7 km/h (2 Bft) 97,87 %
18.02.2026 11:46 4,2 °C 8,9 °C 2,2 °C 79 % 1013,6 hPa 0,0 l/m² 2 min 0 min 282 W/m² 9,7 km/h (2 Bft) 100,00 %
18.02.2026 11:48 4,3 °C 8,3 °C 2,2 °C 79 % 1013,6 hPa 0,0 l/m² 2 min 0 min 278 W/m² 12,9 km/h (3 Bft) 100,00 %
18.02.2026 11:50 4,3 °C 8,3 °C 2,2 °C 79 % 1013,5 hPa 0,0 l/m² 2 min 0 min 275 W/m² 9,7 km/h (2 Bft) 97,87 %
18.02.2026 11:52 4,3 °C 7,8 °C 1,7 °C 79 % 1013,5 hPa 0,0 l/m² 2 min 0 min 273 W/m² 9,7 km/h (2 Bft) 97,87 %
18.02.2026 11:54 4,2 °C 7,2 °C 1,7 °C 78 % 1013,5 hPa 0,0 l/m² 2 min 0 min 277 W/m² 12,9 km/h (3 Bft) 100,00 %
18.02.2026 11:56 4,2 °C 7,2 °C 1,7 °C 79 % 1013,4 hPa 0,0 l/m² 2 min 0 min 288 W/m² 9,7 km/h (2 Bft) 100,00 %
18.02.2026 11:58 4,2 °C 7,8 °C 1,7 °C 79 % 1013,5 hPa 0,0 l/m² 2 min 0 min 297 W/m² 12,9 km/h (3 Bft) 100,00 %
18.02.2026 12:00 4,2 °C 7,2 °C 1,1 °C 79 % 1013,5 hPa 0,0 l/m² 2 min 0 min 287 W/m² 16,1 km/h (3 Bft) 97,83 %
18.02.2026 12:02 4,2 °C 7,2 °C 1,7 °C 78 % 1013,5 hPa 0,0 l/m² 2 min 0 min 299 W/m² 9,7 km/h (2 Bft) 97,87 %
18.02.2026 12:04 4,1 °C 6,7 °C 1,7 °C 78 % 1013,4 hPa 0,0 l/m² 2 min 0 min 291 W/m² 16,1 km/h (3 Bft) 100,00 %
18.02.2026 12:07 4,2 °C 6,1 °C 1,7 °C 78 % 1013,3 hPa 0,0 l/m² 3 min 0 min 288 W/m² 16,1 km/h (3 Bft) 98,63 %
18.02.2026 12:08 4,2 °C 6,1 °C 1,1 °C 78 % 1013,3 hPa 0,0 l/m² 1 min 0 min 281 W/m² 19,3 km/h (3 Bft) 100,00 %
18.02.2026 12:12 4,2 °C 6,7 °C 1,1 °C 79 % 1013,3 hPa 0,0 l/m² 4 min 0 min 279 W/m² 16,1 km/h (3 Bft) 98,08 %
18.02.2026 12:14 4,2 °C 6,1 °C 1,1 °C 78 % 1013,3 hPa 0,0 l/m² 2 min 0 min 261 W/m² 12,9 km/h (3 Bft) 100,00 %
18.02.2026 12:16 4,3 °C 6,7 °C 1,7 °C 78 % 1013,2 hPa 0,0 l/m² 2 min 0 min 246 W/m² 9,7 km/h (2 Bft) 100,00 %
18.02.2026 12:18 4,3 °C 6,7 °C 1,7 °C 79 % 1013,2 hPa 0,0 l/m² 2 min 0 min 239 W/m² 9,7 km/h (2 Bft) 96,00 %
18.02.2026 12:20 4,4 °C 6,7 °C 1,1 °C 78 % 1013,2 hPa 0,0 l/m² 2 min 0 min 234 W/m² 12,9 km/h (3 Bft) 100,00 %
18.02.2026 12:22 4,4 °C 6,7 °C 1,1 °C 78 % 1013,2 hPa 0,0 l/m² 0 min 0 min 224 W/m² 9,7 km/h (2 Bft) 100,00 %
18.02.2026 12:24 4,5 °C 7,2 °C 1,7 °C 78 % 1013,3 hPa 0,0 l/m² 0 min 0 min 227 W/m² 9,7 km/h (2 Bft) 97,87 %
18.02.2026 12:26 4,5 °C 6,1 °C 1,1 °C 78 % 1013,2 hPa 0,0 l/m² 2 min 0 min 240 W/m² 12,9 km/h (3 Bft) 100,00 %
18.02.2026 12:28 4,5 °C 6,1 °C 1,1 °C 77 % 1013,2 hPa 0,0 l/m² 2 min 0 min 253 W/m² 16,1 km/h (3 Bft) 100,00 %
18.02.2026 12:30 4,5 °C 6,1 °C 1,1 °C 77 % 1013,2 hPa 0,0 l/m² 2 min 0 min 276 W/m² 12,9 km/h (3 Bft) 100,00 %
18.02.2026 12:32 4,5 °C 6,7 °C 1,7 °C 77 % 1013,2 hPa 0,0 l/m² 2 min 0 min 280 W/m² 6,4 km/h (2 Bft) 100,00 %
18.02.2026 12:34 4,6 °C 6,7 °C 1,7 °C 77 % 1013,2 hPa 0,0 l/m² 2 min 0 min 262 W/m² 16,1 km/h (3 Bft) 97,87 %
18.02.2026 12:36 4,6 °C 6,7 °C 1,7 °C 77 % 1013,1 hPa 0,0 l/m² 2 min 0 min 292 W/m² 16,1 km/h (3 Bft) 97,87 %
18.02.2026 12:38 4,6 °C 6,7 °C 1,7 °C 77 % 1013,1 hPa 0,0 l/m² 2 min 0 min 296 W/m² 16,1 km/h (3 Bft) 97,87 %
18.02.2026 12:40 4,6 °C 7,2 °C 1,7 °C 76 % 1013,1 hPa 0,0 l/m² 2 min 0 min 314 W/m² 9,7 km/h (2 Bft) 97,87 %
18.02.2026 12:42 4,7 °C 7,8 °C 1,7 °C 77 % 1013,0 hPa 0,0 l/m² 2 min 0 min 260 W/m² 6,4 km/h (2 Bft) 97,87 %
18.02.2026 12:44 4,8 °C 7,8 °C 1,7 °C 77 % 1013,0 hPa 0,0 l/m² 2 min 0 min 295 W/m² 12,9 km/h (3 Bft) 97,83 %
18.02.2026 12:46 4,8 °C 7,8 °C 1,7 °C 77 % 1013,1 hPa 0,0 l/m² 2 min 0 min 300 W/m² 12,9 km/h (3 Bft) 95,74 %
18.02.2026 12:48 4,8 °C 8,3 °C 1,7 °C 76 % 1013,1 hPa 0,0 l/m² 2 min 0 min 350 W/m² 12,9 km/h (3 Bft) 95,74 %
18.02.2026 12:50 4,9 °C 8,9 °C 1,7 °C 76 % 1013,1 hPa 0,0 l/m² 2 min 0 min 382 W/m² 12,9 km/h (3 Bft) 97,87 %
18.02.2026 12:52 4,9 °C 8,3 °C 1,7 °C 76 % 1013,0 hPa 0,0 l/m² 2 min 0 min 325 W/m² 16,1 km/h (3 Bft) 97,87 %
18.02.2026 12:54 4,9 °C 7,8 °C 1,7 °C 76 % 1013,0 hPa 0,0 l/m² 2 min 0 min 274 W/m² 19,3 km/h (3 Bft) 95,74 %
18.02.2026 12:56 4,9 °C 7,2 °C 1,7 °C 76 % 1012,9 hPa 0,0 l/m² 2 min 0 min 261 W/m² 16,1 km/h (3 Bft) 97,87 %
18.02.2026 12:58 4,9 °C 7,2 °C 1,7 °C 76 % 1012,9 hPa 0,0 l/m² 2 min 0 min 229 W/m² 16,1 km/h (3 Bft) 97,87 %
18.02.2026 13:00 4,9 °C 7,8 °C 1,7 °C 76 % 1012,8 hPa 0,0 l/m² 2 min 0 min 265 W/m² 9,7 km/h (2 Bft) 97,87 %
18.02.2026 13:02 5,0 °C 7,8 °C 1,7 °C 76 % 1012,8 hPa 0,0 l/m² 2 min 0 min 275 W/m² 19,3 km/h (3 Bft) 97,87 %
18.02.2026 13:04 5,0 °C 7,2 °C 1,7 °C 75 % 1012,8 hPa 0,0 l/m² 0 min 0 min 197 W/m² 9,7 km/h (2 Bft) 97,87 %
18.02.2026 13:06 5,0 °C 7,2 °C 1,7 °C 76 % 1012,6 hPa 0,0 l/m² 0 min 0 min 207 W/m² 12,9 km/h (3 Bft) 95,65 %
18.02.2026 13:08 5,0 °C 10,0 °C 1,7 °C 75 % 1012,6 hPa 0,0 l/m² 2 min 0 min 383 W/m² 16,1 km/h (3 Bft) 95,74 %
18.02.2026 13:10 5,1 °C 12,8 °C 1,7 °C 76 % 1012,6 hPa 0,0 l/m² 2 min 0 min 586 W/m² 12,9 km/h (3 Bft) 100,00 %
18.02.2026 13:12 5,3 °C 13,3 °C 2,2 °C 76 % 1012,5 hPa 0,0 l/m² 2 min 0 min 600 W/m² 12,9 km/h (3 Bft) 100,00 %
18.02.2026 13:14 5,4 °C 15,0 °C 2,2 °C 75 % 1012,5 hPa 0,0 l/m² 2 min 0 min 617 W/m² 12,9 km/h (3 Bft) 100,00 %
18.02.2026 13:16 5,6 °C 14,4 °C 2,2 °C 75 % 1012,5 hPa 0,0 l/m² 2 min 0 min 468 W/m² 22,5 km/h (4 Bft) 100,00 %
18.02.2026 13:18 5,8 °C 16,1 °C 2,8 °C 75 % 1012,4 hPa 0,0 l/m² 2 min 0 min 467 W/m² 16,1 km/h (3 Bft) 100,00 %
18.02.2026 13:20 6,0 °C 15,0 °C 2,8 °C 74 % 1012,4 hPa 0,0 l/m² 2 min 0 min 632 W/m² 19,3 km/h (3 Bft) 100,00 %
18.02.2026 13:22 6,1 °C 13,9 °C 2,2 °C 73 % 1012,4 hPa 0,0 l/m² 2 min 0 min 566 W/m² 22,5 km/h (4 Bft) 98,15 %
18.02.2026 13:24 6,2 °C 14,4 °C 2,2 °C 73 % 1012,3 hPa 0,0 l/m² 2 min 0 min 543 W/m² 12,9 km/h (3 Bft) 100,00 %
18.02.2026 13:26 6,2 °C 13,9 °C 2,2 °C 72 % 1012,3 hPa 0,0 l/m² 2 min 0 min 533 W/m² 22,5 km/h (4 Bft) 100,00 %
18.02.2026 13:28 6,3 °C 13,3 °C 2,2 °C 72 % 1012,3 hPa 0,0 l/m² 2 min 0 min 550 W/m² 29,0 km/h (5 Bft) 100,00 %
18.02.2026 13:30 6,3 °C 13,3 °C 2,2 °C 72 % 1012,3 hPa 0,0 l/m² 2 min 0 min 512 W/m² 16,1 km/h (3 Bft) 100,00 %
18.02.2026 13:32 6,3 °C 13,3 °C 2,2 °C 72 % 1012,3 hPa 0,0 l/m² 2 min 0 min 533 W/m² 22,5 km/h (4 Bft) 97,87 %
18.02.2026 13:34 6,4 °C 13,3 °C 2,2 °C 71 % 1012,2 hPa 0,0 l/m² 2 min 0 min 517 W/m² 19,3 km/h (3 Bft) 100,00 %
18.02.2026 13:36 6,4 °C 15,0 °C 2,2 °C 71 % 1012,2 hPa 0,0 l/m² 2 min 0 min 518 W/m² 6,4 km/h (2 Bft) 100,00 %
18.02.2026 13:38 6,5 °C 15,0 °C 2,2 °C 71 % 1012,1 hPa 0,0 l/m² 2 min 0 min 507 W/m² 16,1 km/h (3 Bft) 93,62 %
18.02.2026 13:40 6,5 °C 13,9 °C 2,2 °C 70 % 1012,0 hPa 0,0 l/m² 2 min 0 min 496 W/m² 16,1 km/h (3 Bft) 93,62 %
18.02.2026 13:42 6,5 °C 12,8 °C 1,7 °C 70 % 1012,0 hPa 0,0 l/m² 2 min 0 min 503 W/m² 25,7 km/h (4 Bft) 95,74 %
18.02.2026 13:44 6,4 °C 10,6 °C 1,7 °C 70 % 1011,9 hPa 0,0 l/m² 2 min 0 min 503 W/m² 25,7 km/h (4 Bft) 95,74 %
18.02.2026 13:46 6,3 °C 9,4 °C 1,7 °C 70 % 1011,9 hPa 0,0 l/m² 2 min 0 min 257 W/m² 22,5 km/h (4 Bft) 93,62 %
18.02.2026 13:48 6,3 °C 11,7 °C 1,7 °C 70 % 1011,8 hPa 0,0 l/m² 2 min 0 min 388 W/m² 12,9 km/h (3 Bft) 95,74 %
18.02.2026 13:50 6,3 °C 12,2 °C 1,7 °C 70 % 1011,8 hPa 0,0 l/m² 2 min 0 min 475 W/m² 16,1 km/h (3 Bft) 95,65 %
18.02.2026 13:52 6,3 °C 12,8 °C 1,7 °C 70 % 1011,6 hPa 0,0 l/m² 2 min 0 min 469 W/m² 16,1 km/h (3 Bft) 93,62 %
18.02.2026 13:54 6,3 °C 12,8 °C 1,7 °C 71 % 1011,6 hPa 0,0 l/m² 2 min 0 min 473 W/m² 19,3 km/h (3 Bft) 93,62 %
18.02.2026 13:56 6,3 °C 12,2 °C 1,7 °C 71 % 1011,5 hPa 0,0 l/m² 2 min 0 min 471 W/m² 19,3 km/h (3 Bft) 95,74 %
18.02.2026 13:58 6,3 °C 12,2 °C 1,7 °C 71 % 1011,4 hPa 0,0 l/m² 2 min 0 min 468 W/m² 16,1 km/h (3 Bft) 95,74 %
18.02.2026 14:00 6,3 °C 11,7 °C 1,7 °C 70 % 1011,4 hPa 0,0 l/m² 2 min 0 min 470 W/m² 19,3 km/h (3 Bft) 95,74 %
18.02.2026 14:02 6,4 °C 12,2 °C 1,7 °C 70 % 1011,4 hPa 0,0 l/m² 2 min 0 min 468 W/m² 19,3 km/h (3 Bft) 95,74 %
18.02.2026 14:04 6,4 °C 12,2 °C 1,7 °C 70 % 1011,3 hPa 0,0 l/m² 2 min 0 min 466 W/m² 16,1 km/h (3 Bft) 95,12 %
18.02.2026 14:06 6,4 °C 12,8 °C 1,7 °C 70 % 1011,2 hPa 0,0 l/m² 2 min 0 min 455 W/m² 12,9 km/h (3 Bft) 94,92 %
18.02.2026 14:08 6,5 °C 12,8 °C 1,7 °C 71 % 1011,2 hPa 0,0 l/m² 2 min 0 min 446 W/m² 16,1 km/h (3 Bft) 95,24 %
18.02.2026 14:10 6,5 °C 11,7 °C 1,7 °C 70 % 1011,2 hPa 0,0 l/m² 2 min 0 min 463 W/m² 19,3 km/h (3 Bft) 93,62 %
18.02.2026 14:12 6,5 °C 11,7 °C 1,7 °C 70 % 1011,1 hPa 0,0 l/m² 2 min 0 min 451 W/m² 16,1 km/h (3 Bft) 95,74 %
18.02.2026 14:14 6,5 °C 10,6 °C 1,7 °C 70 % 1011,0 hPa 0,0 l/m² 2 min 0 min 447 W/m² 16,1 km/h (3 Bft) 95,65 %
18.02.2026 14:16 6,5 °C 12,2 °C 1,7 °C 70 % 1010,9 hPa 0,0 l/m² 2 min 0 min 446 W/m² 12,9 km/h (3 Bft) 95,74 %
18.02.2026 14:18 6,5 °C 11,7 °C 1,7 °C 70 % 1011,0 hPa 0,0 l/m² 2 min 0 min 443 W/m² 22,5 km/h (4 Bft) 95,74 %
18.02.2026 14:20 6,5 °C 11,7 °C 1,7 °C 70 % 1010,9 hPa 0,0 l/m² 2 min 0 min 433 W/m² 16,1 km/h (3 Bft) 95,74 %
18.02.2026 14:22 6,5 °C 10,6 °C 1,7 °C 70 % 1010,9 hPa 0,0 l/m² 2 min 0 min 346 W/m² 19,3 km/h (3 Bft) 95,74 %
18.02.2026 14:24 6,5 °C 10,6 °C 1,7 °C 70 % 1010,9 hPa 0,0 l/m² 2 min 0 min 386 W/m² 16,1 km/h (3 Bft) 95,74 %
18.02.2026 14:26 6,5 °C 11,1 °C 1,7 °C 70 % 1010,8 hPa 0,0 l/m² 2 min 0 min 420 W/m² 12,9 km/h (3 Bft) 95,74 %
18.02.2026 14:28 6,5 °C 11,1 °C 1,7 °C 71 % 1010,8 hPa 0,0 l/m² 2 min 0 min 426 W/m² 19,3 km/h (3 Bft) 91,49 %
18.02.2026 14:30 6,5 °C 11,1 °C 1,7 °C 70 % 1010,7 hPa 0,0 l/m² 2 min 0 min 408 W/m² 16,1 km/h (3 Bft) 93,62 %
18.02.2026 14:32 6,5 °C 11,7 °C 1,7 °C 70 % 1010,6 hPa 0,0 l/m² 2 min 0 min 408 W/m² 16,1 km/h (3 Bft) 95,74 %
18.02.2026 14:34 6,5 °C 11,1 °C 1,7 °C 70 % 1010,6 hPa 0,0 l/m² 2 min 0 min 413 W/m² 16,1 km/h (3 Bft) 97,87 %
18.02.2026 14:36 6,5 °C 11,7 °C 1,7 °C 70 % 1010,6 hPa 0,0 l/m² 2 min 0 min 410 W/m² 12,9 km/h (3 Bft) 100,00 %
18.02.2026 14:38 6,5 °C 12,8 °C 1,7 °C 71 % 1010,6 hPa 0,0 l/m² 2 min 0 min 403 W/m² 19,3 km/h (3 Bft) 100,00 %
18.02.2026 14:40 6,6 °C 12,2 °C 1,7 °C 70 % 1010,5 hPa 0,0 l/m² 2 min 0 min 401 W/m² 16,1 km/h (3 Bft) 100,00 %
18.02.2026 14:42 6,6 °C 12,8 °C 1,7 °C 70 % 1010,4 hPa 0,0 l/m² 2 min 0 min 399 W/m² 16,1 km/h (3 Bft) 100,00 %
18.02.2026 14:44 6,6 °C 13,9 °C 1,7 °C 70 % 1010,4 hPa 0,0 l/m² 2 min 0 min 394 W/m² 12,9 km/h (3 Bft) 97,87 %
18.02.2026 14:46 6,7 °C 14,4 °C 1,7 °C 71 % 1010,3 hPa 0,0 l/m² 2 min 0 min 388 W/m² 9,7 km/h (2 Bft) 97,87 %
18.02.2026 14:48 6,8 °C 14,4 °C 1,7 °C 71 % 1010,3 hPa 0,0 l/m² 2 min 0 min 389 W/m² 9,7 km/h (2 Bft) 100,00 %
18.02.2026 14:50 6,9 °C 13,9 °C 1,7 °C 71 % 1010,2 hPa 0,0 l/m² 2 min 0 min 388 W/m² 16,1 km/h (3 Bft) 100,00 %
18.02.2026 14:52 7,0 °C 13,9 °C 1,7 °C 71 % 1010,1 hPa 0,0 l/m² 2 min 0 min 379 W/m² 16,1 km/h (3 Bft) 100,00 %
18.02.2026 14:54 7,1 °C 12,8 °C 1,7 °C 70 % 1010,1 hPa 0,0 l/m² 2 min 0 min 375 W/m² 19,3 km/h (3 Bft) 100,00 %
18.02.2026 14:56 7,1 °C 11,7 °C 1,7 °C 69 % 1010,1 hPa 0,0 l/m² 2 min 0 min 386 W/m² 19,3 km/h (3 Bft) 97,87 %
18.02.2026 14:58 7,1 °C 11,1 °C 1,7 °C 69 % 1010,0 hPa 0,0 l/m² 2 min 0 min 391 W/m² 16,1 km/h (3 Bft) 97,87 %
18.02.2026 15:00 6,9 °C 11,1 °C 1,7 °C 68 % 1010,0 hPa 0,0 l/m² 2 min 0 min 375 W/m² 19,3 km/h (3 Bft) 97,87 %
18.02.2026 15:02 6,9 °C 11,7 °C 1,7 °C 69 % 1009,9 hPa 0,0 l/m² 2 min 0 min 358 W/m² 16,1 km/h (3 Bft) 100,00 %
18.02.2026 15:04 6,9 °C 11,7 °C 2,2 °C 69 % 1009,9 hPa 0,0 l/m² 2 min 0 min 376 W/m² 12,9 km/h (3 Bft) 100,00 %
18.02.2026 15:06 6,9 °C 12,2 °C 2,2 °C 69 % 1009,9 hPa 0,0 l/m² 2 min 0 min 372 W/m² 16,1 km/h (3 Bft) 100,00 %
18.02.2026 15:12 6,9 °C 12,8 °C 2,2 °C 69 % 1009,8 hPa 0,0 l/m² 5 min 0 min 381 W/m² 19,3 km/h (3 Bft) 100,00 %
18.02.2026 15:14 6,9 °C 13,3 °C 2,2 °C 69 % 1009,8 hPa 0,0 l/m² 2 min 0 min 378 W/m² 9,7 km/h (2 Bft) 97,87 %
18.02.2026 15:16 7,0 °C 13,3 °C 2,2 °C 70 % 1009,8 hPa 0,0 l/m² 2 min 0 min 378 W/m² 12,9 km/h (3 Bft) 100,00 %
18.02.2026 15:18 7,0 °C 13,3 °C 2,2 °C 69 % 1009,8 hPa 0,0 l/m² 2 min 0 min 375 W/m² 9,7 km/h (2 Bft) 100,00 %
18.02.2026 15:20 7,1 °C 13,9 °C 2,2 °C 70 % 1009,8 hPa 0,0 l/m² 2 min 0 min 365 W/m² 12,9 km/h (3 Bft) 100,00 %
18.02.2026 15:22 7,1 °C 13,3 °C 2,2 °C 70 % 1009,8 hPa 0,0 l/m² 2 min 0 min 357 W/m² 12,9 km/h (3 Bft) 95,74 %
18.02.2026 15:24 7,1 °C 13,3 °C 2,2 °C 69 % 1009,8 hPa 0,0 l/m² 2 min 0 min 353 W/m² 19,3 km/h (3 Bft) 97,87 %
18.02.2026 15:26 7,2 °C 12,8 °C 2,2 °C 69 % 1009,7 hPa 0,0 l/m² 2 min 0 min 344 W/m² 16,1 km/h (3 Bft) 95,65 %
18.02.2026 15:28 7,2 °C 12,2 °C 2,2 °C 69 % 1009,7 hPa 0,0 l/m² 2 min 0 min 339 W/m² 19,3 km/h (3 Bft) 97,87 %
18.02.2026 15:30 7,2 °C 11,7 °C 2,2 °C 68 % 1009,7 hPa 0,0 l/m² 2 min 0 min 331 W/m² 16,1 km/h (3 Bft) 97,87 %
18.02.2026 15:32 7,2 °C 11,7 °C 2,2 °C 69 % 1009,6 hPa 0,0 l/m² 2 min 0 min 323 W/m² 12,9 km/h (3 Bft) 95,74 %
18.02.2026 15:34 7,3 °C 11,7 °C 2,2 °C 69 % 1009,5 hPa 0,0 l/m² 2 min 0 min 316 W/m² 9,7 km/h (2 Bft) 97,87 %
18.02.2026 15:36 7,3 °C 12,2 °C 1,7 °C 69 % 1009,4 hPa 0,0 l/m² 2 min 0 min 310 W/m² 12,9 km/h (3 Bft) 97,87 %
18.02.2026 15:38 7,3 °C 11,7 °C 1,7 °C 69 % 1009,4 hPa 0,0 l/m² 2 min 0 min 307 W/m² 16,1 km/h (3 Bft) 93,62 %
18.02.2026 15:40 7,3 °C 11,7 °C 1,7 °C 70 % 1009,3 hPa 0,0 l/m² 2 min 0 min 300 W/m² 9,7 km/h (2 Bft) 95,74 %
18.02.2026 15:42 7,3 °C 11,7 °C 1,7 °C 69 % 1009,2 hPa 0,0 l/m² 2 min 0 min 294 W/m² 12,9 km/h (3 Bft) 97,87 %
18.02.2026 15:44 7,2 °C 11,1 °C 1,7 °C 69 % 1009,3 hPa 0,0 l/m² 2 min 0 min 289 W/m² 16,1 km/h (3 Bft) 97,87 %
18.02.2026 15:46 7,2 °C 10,0 °C 1,7 °C 68 % 1009,2 hPa 0,0 l/m² 2 min 0 min 280 W/m² 25,7 km/h (4 Bft) 97,87 %
18.02.2026 15:48 7,1 °C 10,0 °C 1,7 °C 69 % 1009,1 hPa 0,0 l/m² 2 min 0 min 262 W/m² 16,1 km/h (3 Bft) 97,87 %
18.02.2026 15:50 7,1 °C 9,4 °C 1,7 °C 68 % 1009,1 hPa 0,0 l/m² 2 min 0 min 244 W/m² 16,1 km/h (3 Bft) 97,14 %
18.02.2026 15:52 7,0 °C 8,3 °C 1,7 °C 69 % 1009,1 hPa 0,0 l/m² 2 min 0 min 226 W/m² 12,9 km/h (3 Bft) 97,87 %
18.02.2026 15:54 6,9 °C 7,8 °C 1,7 °C 69 % 1009,0 hPa 0,0 l/m² 2 min 0 min 203 W/m² 9,7 km/h (2 Bft) 97,96 %
18.02.2026 15:56 6,8 °C 7,2 °C 1,7 °C 70 % 1008,9 hPa 0,0 l/m² 2 min 0 min 152 W/m² 12,9 km/h (3 Bft) 97,87 %
18.02.2026 15:58 6,8 °C 6,7 °C 1,7 °C 70 % 1008,9 hPa 0,0 l/m² 2 min 0 min 130 W/m² 12,9 km/h (3 Bft) 97,87 %
18.02.2026 16:00 6,7 °C 6,7 °C 1,7 °C 70 % 1008,9 hPa 0,0 l/m² 2 min 0 min 130 W/m² 12,9 km/h (3 Bft) 97,87 %
18.02.2026 16:02 6,6 °C 6,1 °C 1,7 °C 70 % 1008,8 hPa 0,0 l/m² 0 min 0 min 125 W/m² 12,9 km/h (3 Bft) 97,87 %
18.02.2026 16:04 6,4 °C 6,1 °C 1,1 °C 70 % 1008,8 hPa 0,0 l/m² 2 min 0 min 135 W/m² 16,1 km/h (3 Bft) 95,74 %
18.02.2026 16:06 6,3 °C 6,1 °C 1,1 °C 71 % 1008,7 hPa 0,0 l/m² 2 min 0 min 138 W/m² 12,9 km/h (3 Bft) 96,67 %
18.02.2026 16:08 6,2 °C 6,1 °C 1,1 °C 72 % 1008,7 hPa 0,0 l/m² 2 min 0 min 126 W/m² 12,9 km/h (3 Bft) 97,22 %
18.02.2026 16:10 6,1 °C 5,6 °C 1,1 °C 72 % 1008,6 hPa 0,0 l/m² 2 min 0 min 121 W/m² 9,7 km/h (2 Bft) 97,87 %
18.02.2026 16:12 5,9 °C 5,6 °C 1,1 °C 72 % 1008,6 hPa 0,0 l/m² 2 min 0 min 128 W/m² 12,9 km/h (3 Bft) 97,87 %
18.02.2026 16:14 5,8 °C 5,6 °C 1,1 °C 73 % 1008,5 hPa 0,0 l/m² 2 min 0 min 135 W/m² 16,1 km/h (3 Bft) 97,87 %
18.02.2026 16:16 5,8 °C 5,6 °C 1,1 °C 73 % 1008,4 hPa 0,0 l/m² 2 min 0 min 126 W/m² 16,1 km/h (3 Bft) 97,83 %
18.02.2026 16:18 5,7 °C 5,6 °C 1,1 °C 73 % 1008,4 hPa 0,0 l/m² 0 min 0 min 104 W/m² 16,1 km/h (3 Bft) 91,49 %
18.02.2026 16:20 5,7 °C 5,6 °C 1,1 °C 73 % 1008,3 hPa 0,0 l/m² 2 min 0 min 108 W/m² 16,1 km/h (3 Bft) 95,74 %
18.02.2026 16:22 5,6 °C 5,6 °C 1,1 °C 73 % 1008,3 hPa 0,0 l/m² 0 min 0 min 104 W/m² 12,9 km/h (3 Bft) 97,87 %
18.02.2026 16:24 5,6 °C 5,6 °C 1,1 °C 73 % 1008,2 hPa 0,0 l/m² 0 min 0 min 83 W/m² 19,3 km/h (3 Bft) 97,87 %
18.02.2026 16:26 5,6 °C 5,6 °C 1,1 °C 73 % 1008,2 hPa 0,0 l/m² 0 min 0 min 71 W/m² 16,1 km/h (3 Bft) 95,74 %
18.02.2026 16:28 5,6 °C 5,6 °C 1,1 °C 73 % 1008,1 hPa 0,0 l/m² 0 min 0 min 64 W/m² 16,1 km/h (3 Bft) 93,62 %
18.02.2026 16:30 5,5 °C 5,6 °C 1,1 °C 73 % 1008,1 hPa 0,0 l/m² 0 min 0 min 61 W/m² 16,1 km/h (3 Bft) 95,74 %
18.02.2026 16:32 5,4 °C 5,6 °C 1,1 °C 73 % 1008,1 hPa 0,0 l/m² 0 min 0 min 59 W/m² 16,1 km/h (3 Bft) 95,74 %
18.02.2026 16:34 5,4 °C 5,0 °C 1,1 °C 73 % 1008,0 hPa 0,0 l/m² 0 min 0 min 58 W/m² 22,5 km/h (4 Bft) 97,87 %
18.02.2026 16:36 5,4 °C 5,0 °C 1,1 °C 73 % 1008,0 hPa 0,0 l/m² 0 min 0 min 58 W/m² 12,9 km/h (3 Bft) 97,87 %
18.02.2026 16:38 5,4 °C 5,0 °C 1,1 °C 74 % 1008,1 hPa 0,0 l/m² 0 min 0 min 59 W/m² 9,7 km/h (2 Bft) 97,83 %
18.02.2026 16:40 5,4 °C 5,0 °C 0,6 °C 74 % 1008,1 hPa 0,0 l/m² 0 min 0 min 60 W/m² 12,9 km/h (3 Bft) 97,87 %
18.02.2026 16:42 5,3 °C 5,0 °C 0,6 °C 74 % 1008,1 hPa 0,0 l/m² 0 min 0 min 60 W/m² 12,9 km/h (3 Bft) 97,87 %
18.02.2026 16:44 5,3 °C 5,0 °C 1,1 °C 74 % 1008,1 hPa 0,0 l/m² 0 min 0 min 60 W/m² 12,9 km/h (3 Bft) 97,87 %
18.02.2026 16:46 5,3 °C 5,0 °C 1,1 °C 74 % 1008,1 hPa 0,0 l/m² 0 min 0 min 60 W/m² 12,9 km/h (3 Bft) 97,87 %
18.02.2026 16:48 5,3 °C 5,0 °C 1,1 °C 74 % 1008,1 hPa 0,0 l/m² 0 min 0 min 58 W/m² 19,3 km/h (3 Bft) 95,74 %
18.02.2026 16:50 5,3 °C 5,0 °C 1,1 °C 74 % 1008,2 hPa 0,0 l/m² 0 min 0 min 58 W/m² 19,3 km/h (3 Bft) 92,11 %
18.02.2026 16:52 5,3 °C 5,0 °C 1,1 °C 74 % 1008,2 hPa 0,0 l/m² 0 min 0 min 58 W/m² 12,9 km/h (3 Bft) 95,74 %
18.02.2026 16:54 5,3 °C 5,0 °C 1,1 °C 74 % 1008,2 hPa 0,0 l/m² 0 min 0 min 57 W/m² 9,7 km/h (2 Bft) 95,74 %
18.02.2026 16:56 5,3 °C 5,0 °C 1,1 °C 74 % 1008,1 hPa 0,0 l/m² 0 min 0 min 55 W/m² 9,7 km/h (2 Bft) 93,62 %
18.02.2026 16:58 5,3 °C 5,0 °C 0,6 °C 74 % 1008,1 hPa 0,0 l/m² 0 min 0 min 53 W/m² 12,9 km/h (3 Bft) 95,74 %
18.02.2026 17:00 5,3 °C 5,0 °C 0,6 °C 74 % 1008,1 hPa 0,0 l/m² 0 min 0 min 51 W/m² 12,9 km/h (3 Bft) 93,62 %
18.02.2026 17:02 5,3 °C 5,0 °C 0,6 °C 74 % 1008,1 hPa 0,0 l/m² 0 min 0 min 48 W/m² 9,7 km/h (2 Bft) 93,62 %
18.02.2026 17:04 5,2 °C 5,0 °C 0,6 °C 74 % 1008,0 hPa 0,0 l/m² 0 min 0 min 46 W/m² 16,1 km/h (3 Bft) 97,92 %
18.02.2026 17:06 5,2 °C 5,0 °C 0,6 °C 73 % 1008,0 hPa 0,0 l/m² 0 min 0 min 43 W/m² 16,1 km/h (3 Bft) 96,55 %
18.02.2026 17:08 5,2 °C 5,0 °C 0,6 °C 73 % 1008,0 hPa 0,0 l/m² 0 min 0 min 42 W/m² 16,1 km/h (3 Bft) 97,14 %
18.02.2026 17:10 5,2 °C 4,4 °C 0,6 °C 73 % 1008,0 hPa 0,0 l/m² 0 min 0 min 39 W/m² 9,7 km/h (2 Bft) 97,87 %
18.02.2026 17:12 5,1 °C 4,4 °C 0,6 °C 73 % 1008,0 hPa 0,0 l/m² 0 min 0 min 38 W/m² 12,9 km/h (3 Bft) 97,87 %
18.02.2026 17:14 5,1 °C 4,4 °C 0,6 °C 73 % 1007,9 hPa 0,0 l/m² 0 min 0 min 35 W/m² 12,9 km/h (3 Bft) 97,87 %
18.02.2026 17:16 5,1 °C 4,4 °C 0,6 °C 73 % 1007,9 hPa 0,0 l/m² 0 min 0 min 33 W/m² 16,1 km/h (3 Bft) 95,74 %
18.02.2026 17:18 5,1 °C 4,4 °C 0,6 °C 73 % 1007,9 hPa 0,0 l/m² 0 min 0 min 32 W/m² 9,7 km/h (2 Bft) 97,87 %
18.02.2026 17:20 5,0 °C 4,4 °C 0,6 °C 74 % 1007,9 hPa 0,0 l/m² 0 min 0 min 30 W/m² 12,9 km/h (3 Bft) 97,87 %
18.02.2026 17:22 5,0 °C 4,4 °C 0,6 °C 74 % 1007,9 hPa 0,0 l/m² 0 min 0 min 28 W/m² 12,9 km/h (3 Bft) 93,62 %
18.02.2026 17:24 4,9 °C 4,4 °C 0,6 °C 74 % 1007,9 hPa 0,0 l/m² 0 min 0 min 26 W/m² 12,9 km/h (3 Bft) 97,87 %
18.02.2026 17:26 4,9 °C 4,4 °C 0,6 °C 74 % 1007,9 hPa 0,0 l/m² 0 min 0 min 25 W/m² 16,1 km/h (3 Bft) 97,87 %
18.02.2026 17:28 4,9 °C 4,4 °C 0,6 °C 74 % 1007,9 hPa 0,0 l/m² 0 min 0 min 22 W/m² 12,9 km/h (3 Bft) 97,87 %
18.02.2026 17:30 4,8 °C 4,4 °C 0,6 °C 74 % 1007,9 hPa 0,0 l/m² 0 min 0 min 20 W/m² 9,7 km/h (2 Bft) 97,87 %
18.02.2026 17:32 4,8 °C 3,9 °C 0,6 °C 74 % 1007,8 hPa 0,0 l/m² 0 min 0 min 19 W/m² 9,7 km/h (2 Bft) 97,83 %
18.02.2026 17:34 4,8 °C 3,9 °C 0,6 °C 74 % 1007,8 hPa 0,0 l/m² 0 min 0 min 17 W/m² 9,7 km/h (2 Bft) 97,87 %
18.02.2026 17:36 4,8 °C 3,9 °C 0,0 °C 74 % 1007,8 hPa 0,0 l/m² 0 min 0 min 15 W/m² 12,9 km/h (3 Bft) 95,74 %
18.02.2026 17:38 4,8 °C 3,9 °C 0,0 °C 74 % 1007,8 hPa 0,0 l/m² 0 min 0 min 13 W/m² 12,9 km/h (3 Bft) 97,87 %
18.02.2026 17:40 4,8 °C 3,9 °C 0,0 °C 74 % 1007,8 hPa 0,0 l/m² 0 min 0 min 11 W/m² 12,9 km/h (3 Bft) 95,74 %
18.02.2026 17:42 4,7 °C 3,9 °C 0,0 °C 74 % 1007,7 hPa 0,0 l/m² 0 min 0 min 10 W/m² 16,1 km/h (3 Bft) 97,87 %
18.02.2026 17:44 4,7 °C 3,9 °C 0,0 °C 74 % 1007,7 hPa 0,0 l/m² 0 min 0 min 8 W/m² 16,1 km/h (3 Bft) 100,00 %
18.02.2026 17:46 4,6 °C 3,9 °C 0,0 °C 74 % 1007,7 hPa 0,0 l/m² 0 min 0 min 7 W/m² 9,7 km/h (2 Bft) 100,00 %
18.02.2026 17:48 4,6 °C 3,3 °C 0,0 °C 75 % 1007,7 hPa 0,0 l/m² 0 min 0 min 5 W/m² 9,7 km/h (2 Bft) 100,00 %
18.02.2026 17:50 4,6 °C 3,3 °C 0,0 °C 75 % 1007,7 hPa 0,0 l/m² 0 min 0 min 3 W/m² 9,7 km/h (2 Bft) 97,87 %
18.02.2026 17:52 4,5 °C 3,3 °C 0,0 °C 75 % 1007,7 hPa 0,0 l/m² 0 min 0 min 0 W/m² 16,1 km/h (3 Bft) 97,87 %
18.02.2026 17:54 4,4 °C 3,3 °C 0,0 °C 75 % 1007,7 hPa 0,0 l/m² 0 min 0 min 0 W/m² 9,7 km/h (2 Bft) 100,00 %
18.02.2026 17:56 4,4 °C 3,3 °C -0,6 °C 75 % 1007,7 hPa 0,0 l/m² 0 min 0 min 0 W/m² 6,4 km/h (2 Bft) 100,00 %
18.02.2026 17:58 4,3 °C 3,3 °C -0,6 °C 76 % 1007,7 hPa 0,0 l/m² 0 min 0 min 0 W/m² 9,7 km/h (2 Bft) 55,56 %
18.02.2026 18:00 4,3 °C 3,3 °C -0,6 °C 76 % 1007,7 hPa 0,0 l/m² 0 min 0 min 0 W/m² 12,9 km/h (3 Bft) 96,88 %
18.02.2026 18:02 4,3 °C 3,3 °C -0,6 °C 76 % 1007,7 hPa 0,0 l/m² 0 min 0 min 0 W/m² 9,7 km/h (2 Bft) 95,74 %
18.02.2026 18:04 4,2 °C 2,8 °C -0,6 °C 76 % 1007,6 hPa 0,0 l/m² 0 min 0 min 0 W/m² 9,7 km/h (2 Bft) 95,83 %
18.02.2026 18:07 4,1 °C 2,8 °C -0,6 °C 76 % 1007,6 hPa 0,0 l/m² 0 min 0 min 0 W/m² 9,7 km/h (2 Bft) 97,14 %
18.02.2026 18:08 4,1 °C 2,8 °C -0,6 °C 77 % 1007,6 hPa 0,0 l/m² 0 min 0 min 0 W/m² 6,4 km/h (2 Bft) 95,83 %
18.02.2026 18:12 3,9 °C 2,8 °C -1,1 °C 77 % 1007,5 hPa 0,0 l/m² 0 min 0 min 0 W/m² 9,7 km/h (2 Bft) 96,15 %
18.02.2026 18:14 3,9 °C 2,8 °C -1,1 °C 77 % 1007,5 hPa 0,0 l/m² 0 min 0 min 0 W/m² 6,4 km/h (2 Bft) 97,87 %
18.02.2026 18:16 3,8 °C 2,8 °C -1,1 °C 78 % 1007,6 hPa 0,0 l/m² 0 min 0 min 0 W/m² 6,4 km/h (2 Bft) 93,62 %
18.02.2026 18:18 3,8 °C 2,8 °C -1,1 °C 78 % 1007,5 hPa 0,0 l/m² 0 min 0 min 0 W/m² 6,4 km/h (2 Bft) 95,65 %
18.02.2026 18:20 3,7 °C 2,2 °C -1,1 °C 78 % 1007,5 hPa 0,0 l/m² 0 min 0 min 0 W/m² 9,7 km/h (2 Bft) 97,87 %
18.02.2026 18:22 3,7 °C 2,2 °C -1,1 °C 78 % 1007,5 hPa 0,0 l/m² 0 min 0 min 0 W/m² 9,7 km/h (2 Bft) 95,74 %
18.02.2026 18:24 3,7 °C 2,2 °C -1,1 °C 79 % 1007,5 hPa 0,0 l/m² 0 min 0 min 0 W/m² 9,7 km/h (2 Bft) 95,74 %
18.02.2026 18:26 3,6 °C 2,2 °C -1,1 °C 79 % 1007,6 hPa 0,0 l/m² 0 min 0 min 0 W/m² 9,7 km/h (2 Bft) 95,74 %
18.02.2026 18:28 3,5 °C 2,2 °C -1,1 °C 80 % 1007,6 hPa 0,0 l/m² 0 min 0 min 0 W/m² 6,4 km/h (2 Bft) 97,87 %
18.02.2026 18:30 3,4 °C 2,2 °C -1,1 °C 80 % 1007,6 hPa 0,0 l/m² 0 min 0 min 0 W/m² 12,9 km/h (3 Bft) 95,74 %
18.02.2026 18:32 3,4 °C 2,2 °C -1,7 °C 81 % 1007,5 hPa 0,0 l/m² 0 min 0 min 0 W/m² 9,7 km/h (2 Bft) 97,67 %
18.02.2026 18:34 3,3 °C 2,2 °C -1,7 °C 81 % 1007,5 hPa 0,0 l/m² 0 min 0 min 0 W/m² 9,7 km/h (2 Bft) 96,00 %
18.02.2026 18:36 3,2 °C 2,2 °C -1,7 °C 82 % 1007,5 hPa 0,0 l/m² 0 min 0 min 0 W/m² 9,7 km/h (2 Bft) 91,49 %
18.02.2026 18:38 3,2 °C 2,2 °C -1,7 °C 82 % 1007,5 hPa 0,0 l/m² 0 min 0 min 0 W/m² 12,9 km/h (3 Bft) 97,87 %
18.02.2026 18:40 3,1 °C 2,2 °C -1,7 °C 83 % 1007,5 hPa 0,0 l/m² 0 min 0 min 0 W/m² 9,7 km/h (2 Bft) 97,87 %
18.02.2026 18:42 3,1 °C 2,2 °C -1,7 °C 83 % 1007,4 hPa 0,0 l/m² 0 min 0 min 0 W/m² 9,7 km/h (2 Bft) 95,74 %
18.02.2026 18:44 3,0 °C 1,7 °C -1,7 °C 83 % 1007,5 hPa 0,0 l/m² 0 min 0 min 0 W/m² 9,7 km/h (2 Bft) 97,87 %
18.02.2026 18:46 2,9 °C 1,7 °C -1,7 °C 84 % 1007,4 hPa 0,0 l/m² 0 min 0 min 0 W/m² 12,9 km/h (3 Bft) 97,83 %
18.02.2026 18:48 2,9 °C 1,7 °C -1,7 °C 84 % 1007,3 hPa 0,0 l/m² 0 min 0 min 0 W/m² 9,7 km/h (2 Bft) 97,87 %
18.02.2026 18:50 2,8 °C 1,7 °C -1,7 °C 84 % 1007,3 hPa 0,0 l/m² 0 min 0 min 0 W/m² 9,7 km/h (2 Bft) 95,74 %
18.02.2026 18:52 2,8 °C 1,7 °C -1,7 °C 85 % 1007,4 hPa 0,0 l/m² 0 min 0 min 0 W/m² 9,7 km/h (2 Bft) 97,87 %
18.02.2026 18:54 2,8 °C 1,7 °C -1,7 °C 85 % 1007,3 hPa 0,0 l/m² 0 min 0 min 0 W/m² 9,7 km/h (2 Bft) 97,87 %
18.02.2026 18:56 2,7 °C 1,7 °C -1,7 °C 85 % 1007,3 hPa 0,0 l/m² 0 min 0 min 0 W/m² 12,9 km/h (3 Bft) 97,87 %
18.02.2026 18:58 2,7 °C 1,7 °C -1,7 °C 85 % 1007,3 hPa 0,0 l/m² 0 min 0 min 0 W/m² 9,7 km/h (2 Bft) 97,87 %
18.02.2026 19:00 2,7 °C 1,7 °C -1,7 °C 86 % 1007,3 hPa 0,0 l/m² 0 min 0 min 0 W/m² 9,7 km/h (2 Bft) 97,87 %
18.02.2026 19:02 2,6 °C 1,7 °C -1,7 °C 86 % 1007,3 hPa 0,0 l/m² 0 min 0 min 0 W/m² 16,1 km/h (3 Bft) 95,74 %
18.02.2026 19:04 2,6 °C 1,7 °C -1,7 °C 86 % 1007,2 hPa 0,0 l/m² 0 min 0 min 0 W/m² 9,7 km/h (2 Bft) 100,00 %
18.02.2026 19:06 2,6 °C 1,7 °C -1,7 °C 86 % 1007,2 hPa 0,0 l/m² 0 min 0 min 0 W/m² 9,7 km/h (2 Bft) 100,00 %
18.02.2026 19:08 2,6 °C 1,7 °C -1,7 °C 86 % 1007,1 hPa 0,0 l/m² 0 min 0 min 0 W/m² 0,0 km/h (0 Bft) 100,00 %
18.02.2026 19:10 2,5 °C 1,7 °C -2,2 °C 87 % 1007,1 hPa 0,0 l/m² 0 min 0 min 0 W/m² 9,7 km/h (2 Bft) 100,00 %
18.02.2026 19:12 2,5 °C 1,7 °C -2,2 °C 86 % 1007,0 hPa 0,0 l/m² 0 min 0 min 0 W/m² 12,9 km/h (3 Bft) 100,00 %
18.02.2026 19:14 2,4 °C 1,7 °C -2,2 °C 87 % 1007,0 hPa 0,0 l/m² 0 min 0 min 0 W/m² 9,7 km/h (2 Bft) 100,00 %
18.02.2026 19:16 2,4 °C 1,7 °C -2,2 °C 87 % 1007,0 hPa 0,0 l/m² 0 min 0 min 0 W/m² 12,9 km/h (3 Bft) 100,00 %
18.02.2026 19:18 2,3 °C 1,7 °C -2,2 °C 87 % 1007,0 hPa 0,0 l/m² 0 min 0 min 0 W/m² 12,9 km/h (3 Bft) 100,00 %
18.02.2026 19:20 2,3 °C 1,7 °C -2,2 °C 87 % 1007,0 hPa 0,0 l/m² 0 min 0 min 0 W/m² 12,9 km/h (3 Bft) 100,00 %
18.02.2026 19:22 2,3 °C 1,7 °C -2,2 °C 88 % 1007,0 hPa 0,0 l/m² 0 min 0 min 0 W/m² 12,9 km/h (3 Bft) 100,00 %
18.02.2026 19:24 2,3 °C 1,7 °C -2,2 °C 88 % 1007,0 hPa 0,0 l/m² 0 min 0 min 0 W/m² 9,7 km/h (2 Bft) 97,87 %
18.02.2026 19:26 2,3 °C 1,7 °C -2,2 °C 88 % 1007,0 hPa 0,0 l/m² 0 min 0 min 0 W/m² 12,9 km/h (3 Bft) 100,00 %
18.02.2026 19:28 2,3 °C 1,7 °C -2,2 °C 88 % 1006,9 hPa 0,0 l/m² 0 min 0 min 0 W/m² 9,7 km/h (2 Bft) 100,00 %
18.02.2026 19:30 2,3 °C 1,7 °C -2,2 °C 88 % 1006,9 hPa 0,0 l/m² 0 min 0 min 0 W/m² 9,7 km/h (2 Bft) 100,00 %
18.02.2026 19:32 2,2 °C 1,7 °C -2,2 °C 88 % 1007,0 hPa 0,0 l/m² 0 min 0 min 0 W/m² 12,9 km/h (3 Bft) 100,00 %
18.02.2026 19:34 2,2 °C 1,7 °C -2,2 °C 88 % 1007,0 hPa 0,0 l/m² 0 min 0 min 0 W/m² 9,7 km/h (2 Bft) 100,00 %
18.02.2026 19:36 2,2 °C 1,7 °C -2,2 °C 88 % 1007,0 hPa 0,0 l/m² 0 min 0 min 0 W/m² 9,7 km/h (2 Bft) 100,00 %
18.02.2026 19:38 2,2 °C 1,7 °C -2,2 °C 88 % 1007,0 hPa 0,0 l/m² 0 min 0 min 0 W/m² 9,7 km/h (2 Bft) 100,00 %
18.02.2026 19:40 2,2 °C 1,7 °C -2,2 °C 88 % 1006,9 hPa 0,0 l/m² 0 min 0 min 0 W/m² 12,9 km/h (3 Bft) 97,87 %
18.02.2026 19:42 2,2 °C 1,7 °C -2,2 °C 88 % 1006,8 hPa 0,0 l/m² 0 min 0 min 0 W/m² 22,5 km/h (4 Bft) 95,74 %
18.02.2026 19:44 2,2 °C 1,1 °C -2,2 °C 88 % 1006,8 hPa 0,0 l/m² 0 min 0 min 0 W/m² 6,4 km/h (2 Bft) 96,15 %
18.02.2026 19:46 2,2 °C 1,1 °C -2,2 °C 88 % 1006,7 hPa 0,0 l/m² 0 min 0 min 0 W/m² 6,4 km/h (2 Bft) 95,74 %
18.02.2026 19:48 2,2 °C 1,1 °C -2,2 °C 88 % 1006,7 hPa 0,0 l/m² 0 min 0 min 0 W/m² 12,9 km/h (3 Bft) 97,87 %
18.02.2026 19:50 2,2 °C 1,1 °C -2,2 °C 88 % 1006,6 hPa 0,0 l/m² 0 min 0 min 0 W/m² 9,7 km/h (2 Bft) 97,87 %
18.02.2026 19:52 2,1 °C 1,1 °C -2,2 °C 88 % 1006,6 hPa 0,0 l/m² 0 min 0 min 0 W/m² 9,7 km/h (2 Bft) 95,74 %
18.02.2026 19:54 2,1 °C 1,1 °C -2,2 °C 88 % 1006,5 hPa 0,0 l/m² 0 min 0 min 0 W/m² 9,7 km/h (2 Bft) 97,83 %
18.02.2026 19:56 2,1 °C 1,7 °C -2,2 °C 88 % 1006,6 hPa 0,0 l/m² 0 min 0 min 0 W/m² 6,4 km/h (2 Bft) 95,74 %
18.02.2026 19:58 2,1 °C 1,7 °C -2,2 °C 88 % 1006,6 hPa 0,0 l/m² 0 min 0 min 0 W/m² 9,7 km/h (2 Bft) 97,87 %
18.02.2026 20:00 2,1 °C 1,7 °C -2,2 °C 88 % 1006,6 hPa 0,0 l/m² 0 min 0 min 0 W/m² 16,1 km/h (3 Bft) 95,74 %
18.02.2026 20:02 2,1 °C 1,7 °C -2,2 °C 88 % 1006,6 hPa 0,0 l/m² 0 min 0 min 0 W/m² 6,4 km/h (2 Bft) 95,74 %
18.02.2026 20:04 2,1 °C 1,7 °C -2,2 °C 88 % 1006,5 hPa 0,0 l/m² 0 min 0 min 0 W/m² 6,4 km/h (2 Bft) 95,74 %
18.02.2026 20:06 2,1 °C 1,7 °C -2,2 °C 88 % 1006,6 hPa 0,0 l/m² 0 min 0 min 0 W/m² 9,7 km/h (2 Bft) 93,62 %
18.02.2026 20:08 2,1 °C 1,7 °C -2,2 °C 88 % 1006,5 hPa 0,0 l/m² 0 min 0 min 0 W/m² 6,4 km/h (2 Bft) 95,83 %
18.02.2026 20:10 2,1 °C 1,1 °C -2,2 °C 88 % 1006,5 hPa 0,0 l/m² 0 min 0 min 0 W/m² 6,4 km/h (2 Bft) 95,74 %
18.02.2026 20:12 2,1 °C 1,1 °C -2,2 °C 88 % 1006,5 hPa 0,0 l/m² 0 min 0 min 0 W/m² 9,7 km/h (2 Bft) 93,62 %
18.02.2026 20:14 2,1 °C 1,1 °C -2,2 °C 88 % 1006,5 hPa 0,0 l/m² 0 min 0 min 0 W/m² 12,9 km/h (3 Bft) 95,74 %
18.02.2026 20:16 2,1 °C 1,1 °C -2,2 °C 88 % 1006,5 hPa 0,0 l/m² 0 min 0 min 0 W/m² 6,4 km/h (2 Bft) 97,83 %
18.02.2026 20:18 2,1 °C 1,1 °C -2,2 °C 88 % 1006,5 hPa 0,0 l/m² 0 min 0 min 0 W/m² 6,4 km/h (2 Bft) 97,87 %
18.02.2026 20:20 2,1 °C 1,1 °C -2,2 °C 88 % 1006,4 hPa 0,0 l/m² 0 min 0 min 0 W/m² 12,9 km/h (3 Bft) 93,62 %
18.02.2026 20:22 2,1 °C 1,1 °C -2,2 °C 88 % 1006,3 hPa 0,0 l/m² 0 min 0 min 0 W/m² 6,4 km/h (2 Bft) 97,87 %
18.02.2026 20:24 2,1 °C 1,1 °C -2,2 °C 88 % 1006,3 hPa 0,0 l/m² 0 min 0 min 0 W/m² 9,7 km/h (2 Bft) 95,74 %
18.02.2026 20:26 2,1 °C 1,1 °C -2,2 °C 88 % 1006,1 hPa 0,0 l/m² 0 min 0 min 0 W/m² 12,9 km/h (3 Bft) 97,87 %
18.02.2026 20:28 2,1 °C 1,1 °C -2,2 °C 88 % 1006,1 hPa 0,0 l/m² 0 min 0 min 0 W/m² 12,9 km/h (3 Bft) 97,87 %
18.02.2026 20:30 2,1 °C 1,1 °C -2,2 °C 88 % 1006,0 hPa 0,0 l/m² 0 min 0 min 0 W/m² 9,7 km/h (2 Bft) 93,62 %
18.02.2026 20:32 2,1 °C 1,1 °C -2,2 °C 88 % 1006,0 hPa 0,0 l/m² 0 min 0 min 0 W/m² 12,9 km/h (3 Bft) 54,55 %
18.02.2026 20:34 2,1 °C 1,1 °C -2,2 °C 88 % 1006,0 hPa 0,0 l/m² 0 min 0 min 0 W/m² 9,7 km/h (2 Bft) 95,74 %
18.02.2026 20:36 2,1 °C 1,7 °C -2,2 °C 88 % 1005,9 hPa 0,0 l/m² 0 min 0 min 0 W/m² 12,9 km/h (3 Bft) 95,74 %
18.02.2026 20:38 2,1 °C 1,7 °C -1,7 °C 87 % 1005,8 hPa 0,0 l/m² 0 min 0 min 0 W/m² 12,9 km/h (3 Bft) 93,62 %
18.02.2026 20:40 2,2 °C 1,7 °C -1,7 °C 87 % 1005,8 hPa 0,0 l/m² 0 min 0 min 0 W/m² 12,9 km/h (3 Bft) 95,74 %
18.02.2026 20:42 2,2 °C 2,2 °C -1,7 °C 86 % 1005,9 hPa 0,0 l/m² 0 min 0 min 0 W/m² 12,9 km/h (3 Bft) 95,74 %
18.02.2026 20:44 2,3 °C 2,2 °C -1,7 °C 85 % 1005,8 hPa 0,0 l/m² 0 min 0 min 0 W/m² 12,9 km/h (3 Bft) 91,43 %
18.02.2026 20:46 2,4 °C 2,2 °C -1,7 °C 85 % 1005,8 hPa 0,0 l/m² 0 min 0 min 0 W/m² 12,9 km/h (3 Bft) 95,74 %
18.02.2026 20:48 2,4 °C 2,2 °C -1,7 °C 84 % 1005,7 hPa 0,0 l/m² 0 min 0 min 0 W/m² 16,1 km/h (3 Bft) 95,74 %
18.02.2026 20:50 2,5 °C 2,2 °C -1,7 °C 84 % 1005,7 hPa 0,0 l/m² 0 min 0 min 0 W/m² 12,9 km/h (3 Bft) 97,87 %
18.02.2026 20:52 2,6 °C 2,2 °C -1,1 °C 83 % 1005,7 hPa 0,0 l/m² 0 min 0 min 0 W/m² 22,5 km/h (4 Bft) 93,62 %
18.02.2026 20:54 2,6 °C 2,2 °C -1,1 °C 83 % 1005,6 hPa 0,0 l/m² 0 min 0 min 0 W/m² 12,9 km/h (3 Bft) 97,87 %
18.02.2026 20:56 2,7 °C 2,2 °C -1,1 °C 82 % 1005,6 hPa 0,0 l/m² 0 min 0 min 0 W/m² 16,1 km/h (3 Bft) 97,87 %
18.02.2026 20:58 2,7 °C 2,2 °C -1,1 °C 82 % 1005,7 hPa 0,0 l/m² 0 min 0 min 0 W/m² 16,1 km/h (3 Bft) 97,87 %
18.02.2026 21:00 2,8 °C 2,2 °C -1,1 °C 81 % 1005,6 hPa 0,0 l/m² 0 min 0 min 0 W/m² 19,3 km/h (3 Bft) 95,74 %
18.02.2026 21:02 2,9 °C 2,8 °C -1,1 °C 80 % 1005,5 hPa 0,0 l/m² 0 min 0 min 0 W/m² 19,3 km/h (3 Bft) 93,62 %
18.02.2026 21:04 2,9 °C 2,8 °C -1,1 °C 80 % 1005,6 hPa 0,0 l/m² 0 min 0 min 0 W/m² 12,9 km/h (3 Bft) 95,83 %
18.02.2026 21:06 2,9 °C 2,2 °C -1,1 °C 80 % 1005,6 hPa 0,0 l/m² 0 min 0 min 0 W/m² 12,9 km/h (3 Bft) 97,87 %
18.02.2026 21:08 2,9 °C 2,2 °C -1,7 °C 80 % 1005,5 hPa 0,0 l/m² 0 min 0 min 0 W/m² 16,1 km/h (3 Bft) 97,83 %
18.02.2026 21:10 2,9 °C 2,2 °C -1,7 °C 80 % 1005,6 hPa 0,0 l/m² 0 min 0 min 0 W/m² 9,7 km/h (2 Bft) 100,00 %
18.02.2026 21:12 2,9 °C 2,2 °C -1,7 °C 80 % 1005,5 hPa 0,0 l/m² 0 min 0 min 0 W/m² 16,1 km/h (3 Bft) 100,00 %
18.02.2026 21:14 2,9 °C 2,2 °C -1,7 °C 80 % 1005,5 hPa 0,0 l/m² 0 min 0 min 0 W/m² 25,7 km/h (4 Bft) 100,00 %
18.02.2026 21:16 2,9 °C 2,2 °C -1,7 °C 80 % 1005,5 hPa 0,0 l/m² 0 min 0 min 0 W/m² 9,7 km/h (2 Bft) 100,00 %
18.02.2026 21:18 2,8 °C 2,2 °C -1,7 °C 80 % 1005,5 hPa 0,0 l/m² 0 min 0 min 0 W/m² 12,9 km/h (3 Bft) 100,00 %
18.02.2026 21:20 2,8 °C 2,2 °C -1,7 °C 80 % 1005,4 hPa 0,0 l/m² 0 min 0 min 0 W/m² 12,9 km/h (3 Bft) 100,00 %
18.02.2026 21:22 2,8 °C 2,2 °C -1,7 °C 81 % 1005,4 hPa 0,0 l/m² 0 min 0 min 0 W/m² 22,5 km/h (4 Bft) 100,00 %
18.02.2026 21:24 2,8 °C 2,2 °C -1,1 °C 80 % 1005,4 hPa 0,0 l/m² 0 min 0 min 0 W/m² 19,3 km/h (3 Bft) 100,00 %
18.02.2026 21:26 2,8 °C 2,2 °C -1,1 °C 80 % 1005,3 hPa 0,0 l/m² 0 min 0 min 0 W/m² 12,9 km/h (3 Bft) 100,00 %
18.02.2026 21:28 2,9 °C 2,8 °C -1,1 °C 79 % 1005,3 hPa 0,0 l/m² 0 min 0 min 0 W/m² 22,5 km/h (4 Bft) 100,00 %
18.02.2026 21:30 3,1 °C 2,8 °C -1,1 °C 78 % 1005,2 hPa 0,0 l/m² 0 min 0 min 0 W/m² 22,5 km/h (4 Bft) 100,00 %
18.02.2026 21:32 3,1 °C 2,8 °C -1,1 °C 78 % 1005,2 hPa 0,0 l/m² 0 min 0 min 0 W/m² 16,1 km/h (3 Bft) 100,00 %
18.02.2026 21:34 3,2 °C 2,8 °C -1,1 °C 77 % 1005,1 hPa 0,0 l/m² 0 min 0 min 0 W/m² 16,1 km/h (3 Bft) 100,00 %
18.02.2026 21:36 3,3 °C 2,8 °C -1,1 °C 77 % 1005,1 hPa 0,0 l/m² 0 min 0 min 0 W/m² 16,1 km/h (3 Bft) 97,87 %
18.02.2026 21:38 3,3 °C 3,3 °C -0,6 °C 76 % 1005,3 hPa 0,0 l/m² 0 min 0 min 0 W/m² 32,2 km/h (5 Bft) 95,74 %
18.02.2026 21:40 3,5 °C 3,3 °C -0,6 °C 75 % 1005,0 hPa 0,0 l/m² 0 min 0 min 0 W/m² 25,7 km/h (4 Bft) 95,74 %
18.02.2026 21:42 3,6 °C 3,3 °C -0,6 °C 75 % 1005,0 hPa 0,0 l/m² 0 min 0 min 0 W/m² 25,7 km/h (4 Bft) 97,87 %
18.02.2026 21:44 3,6 °C 3,3 °C -0,6 °C 75 % 1005,0 hPa 0,0 l/m² 0 min 0 min 0 W/m² 16,1 km/h (3 Bft) 97,87 %
18.02.2026 21:46 3,6 °C 3,3 °C -0,6 °C 74 % 1004,9 hPa 0,0 l/m² 0 min 0 min 0 W/m² 22,5 km/h (4 Bft) 97,87 %
18.02.2026 21:48 3,7 °C 3,3 °C -0,6 °C 74 % 1005,0 hPa 0,0 l/m² 0 min 0 min 0 W/m² 25,7 km/h (4 Bft) 97,87 %
18.02.2026 21:50 3,7 °C 3,3 °C -0,6 °C 74 % 1004,9 hPa 0,0 l/m² 0 min 0 min 0 W/m² 16,1 km/h (3 Bft) 97,87 %
18.02.2026 21:52 3,7 °C 3,3 °C -0,6 °C 74 % 1004,9 hPa 0,0 l/m² 0 min 0 min 0 W/m² 22,5 km/h (4 Bft) 95,74 %
18.02.2026 21:54 3,7 °C 3,3 °C -0,6 °C 74 % 1004,9 hPa 0,0 l/m² 0 min 0 min 0 W/m² 16,1 km/h (3 Bft) 97,83 %
18.02.2026 21:56 3,7 °C 3,3 °C -0,6 °C 73 % 1004,8 hPa 0,0 l/m² 0 min 0 min 0 W/m² 19,3 km/h (3 Bft) 97,87 %
18.02.2026 21:58 3,7 °C 3,3 °C -0,6 °C 73 % 1004,8 hPa 0,0 l/m² 0 min 0 min 0 W/m² 19,3 km/h (3 Bft) 97,87 %
18.02.2026 22:00 3,7 °C 3,3 °C -0,6 °C 74 % 1004,9 hPa 0,0 l/m² 0 min 0 min 0 W/m² 25,7 km/h (4 Bft) 97,87 %
18.02.2026 22:02 3,8 °C 3,3 °C -0,6 °C 73 % 1004,8 hPa 0,0 l/m² 0 min 0 min 0 W/m² 22,5 km/h (4 Bft) 95,74 %
18.02.2026 22:04 3,8 °C 3,3 °C -0,6 °C 73 % 1004,8 hPa 0,0 l/m² 0 min 0 min 0 W/m² 19,3 km/h (3 Bft) 97,92 %
18.02.2026 22:06 3,8 °C 3,3 °C -0,6 °C 73 % 1004,8 hPa 0,0 l/m² 0 min 0 min 0 W/m² 22,5 km/h (4 Bft) 97,87 %
18.02.2026 22:08 3,8 °C 3,3 °C -0,6 °C 73 % 1004,9 hPa 0,0 l/m² 0 min 0 min 0 W/m² 19,3 km/h (3 Bft) 95,74 %
18.02.2026 22:10 3,8 °C 3,3 °C -0,6 °C 73 % 1004,8 hPa 0,0 l/m² 0 min 0 min 0 W/m² 12,9 km/h (3 Bft) 95,74 %
18.02.2026 22:12 3,8 °C 3,3 °C -0,6 °C 73 % 1004,8 hPa 0,0 l/m² 0 min 0 min 0 W/m² 16,1 km/h (3 Bft) 100,00 %
18.02.2026 22:14 3,8 °C 3,3 °C -0,6 °C 73 % 1004,7 hPa 0,0 l/m² 0 min 0 min 0 W/m² 22,5 km/h (4 Bft) 97,87 %
18.02.2026 22:16 3,8 °C 3,3 °C -0,6 °C 73 % 1004,6 hPa 0,0 l/m² 0 min 0 min 0 W/m² 19,3 km/h (3 Bft) 100,00 %
18.02.2026 22:18 3,8 °C 3,3 °C -0,6 °C 73 % 1004,7 hPa 0,0 l/m² 0 min 0 min 0 W/m² 16,1 km/h (3 Bft) 50,00 %
18.02.2026 22:20 3,8 °C 3,3 °C -0,6 °C 73 % 1004,6 hPa 0,0 l/m² 0 min 0 min 0 W/m² 19,3 km/h (3 Bft) 100,00 %
18.02.2026 22:22 3,8 °C 3,3 °C -0,6 °C 73 % 1004,6 hPa 0,0 l/m² 0 min 0 min 0 W/m² 22,5 km/h (4 Bft) 100,00 %
18.02.2026 22:24 3,9 °C 3,3 °C -0,6 °C 73 % 1004,6 hPa 0,0 l/m² 0 min 0 min 0 W/m² 19,3 km/h (3 Bft) 100,00 %
18.02.2026 22:26 3,9 °C 3,3 °C -0,6 °C 73 % 1004,6 hPa 0,0 l/m² 0 min 0 min 0 W/m² 19,3 km/h (3 Bft) 100,00 %
18.02.2026 22:28 3,9 °C 3,3 °C -0,6 °C 73 % 1004,6 hPa 0,0 l/m² 0 min 0 min 0 W/m² 19,3 km/h (3 Bft) 100,00 %
18.02.2026 22:30 3,9 °C 3,3 °C -0,6 °C 73 % 1004,6 hPa 0,0 l/m² 0 min 0 min 0 W/m² 22,5 km/h (4 Bft) 100,00 %
18.02.2026 22:32 3,9 °C 3,3 °C -0,6 °C 73 % 1004,6 hPa 0,0 l/m² 0 min 0 min 0 W/m² 22,5 km/h (4 Bft) 100,00 %
18.02.2026 22:34 3,9 °C 3,3 °C -0,6 °C 73 % 1004,6 hPa 0,0 l/m² 0 min 0 min 0 W/m² 25,7 km/h (4 Bft) 100,00 %
18.02.2026 22:36 3,9 °C 3,3 °C -0,6 °C 73 % 1004,6 hPa 0,0 l/m² 0 min 0 min 0 W/m² 22,5 km/h (4 Bft) 100,00 %
18.02.2026 22:38 3,9 °C 3,3 °C -0,6 °C 73 % 1004,5 hPa 0,0 l/m² 0 min 0 min 0 W/m² 19,3 km/h (3 Bft) 100,00 %
18.02.2026 22:40 4,0 °C 3,3 °C -0,6 °C 73 % 1004,5 hPa 0,0 l/m² 0 min 0 min 0 W/m² 19,3 km/h (3 Bft) 100,00 %
18.02.2026 22:42 4,0 °C 3,3 °C -0,6 °C 72 % 1004,5 hPa 0,0 l/m² 0 min 0 min 0 W/m² 32,2 km/h (5 Bft) 97,87 %
18.02.2026 22:44 4,0 °C 3,3 °C -0,6 °C 72 % 1004,4 hPa 0,0 l/m² 0 min 0 min 0 W/m² 29,0 km/h (5 Bft) 100,00 %
18.02.2026 22:46 4,0 °C 3,3 °C -0,6 °C 72 % 1004,4 hPa 0,0 l/m² 0 min 0 min 0 W/m² 19,3 km/h (3 Bft) 100,00 %
18.02.2026 22:48 4,0 °C 3,3 °C -0,6 °C 72 % 1004,4 hPa 0,0 l/m² 0 min 0 min 0 W/m² 22,5 km/h (4 Bft) 100,00 %
18.02.2026 22:50 4,0 °C 3,3 °C -0,6 °C 72 % 1004,4 hPa 0,0 l/m² 0 min 0 min 0 W/m² 19,3 km/h (3 Bft) 100,00 %
18.02.2026 22:52 4,0 °C 3,3 °C -0,6 °C 72 % 1004,4 hPa 0,0 l/m² 0 min 0 min 0 W/m² 22,5 km/h (4 Bft) 97,87 %
18.02.2026 22:54 4,0 °C 3,3 °C -0,6 °C 72 % 1004,3 hPa 0,0 l/m² 0 min 0 min 0 W/m² 19,3 km/h (3 Bft) 97,87 %
18.02.2026 22:56 4,0 °C 3,3 °C -0,6 °C 72 % 1004,2 hPa 0,0 l/m² 0 min 0 min 0 W/m² 19,3 km/h (3 Bft) 97,87 %
18.02.2026 22:58 4,0 °C 3,3 °C -0,6 °C 72 % 1004,2 hPa 0,0 l/m² 0 min 0 min 0 W/m² 19,3 km/h (3 Bft) 95,74 %
18.02.2026 23:00 4,0 °C 3,3 °C -0,6 °C 72 % 1004,1 hPa 0,0 l/m² 0 min 0 min 0 W/m² 22,5 km/h (4 Bft) 93,62 %
18.02.2026 23:02 4,0 °C 3,3 °C -0,6 °C 72 % 1004,2 hPa 0,0 l/m² 0 min 0 min 0 W/m² 22,5 km/h (4 Bft) 93,48 %
18.02.2026 23:04 4,0 °C 3,3 °C -0,6 °C 72 % 1004,2 hPa 0,0 l/m² 0 min 0 min 0 W/m² 22,5 km/h (4 Bft) 95,83 %
18.02.2026 23:06 4,0 °C 3,3 °C -0,6 °C 71 % 1004,2 hPa 0,0 l/m² 0 min 0 min 0 W/m² 16,1 km/h (3 Bft) 93,62 %
18.02.2026 23:08 4,0 °C 3,3 °C -0,6 °C 72 % 1004,1 hPa 0,0 l/m² 0 min 0 min 0 W/m² 16,1 km/h (3 Bft) 95,24 %
18.02.2026 23:10 4,0 °C 3,3 °C -0,6 °C 72 % 1004,1 hPa 0,0 l/m² 0 min 0 min 0 W/m² 16,1 km/h (3 Bft) 95,65 %
18.02.2026 23:12 4,0 °C 3,3 °C -0,6 °C 72 % 1004,1 hPa 0,0 l/m² 0 min 0 min 0 W/m² 29,0 km/h (5 Bft) 97,87 %
18.02.2026 23:14 3,9 °C 3,3 °C -0,6 °C 72 % 1004,0 hPa 0,0 l/m² 0 min 0 min 0 W/m² 22,5 km/h (4 Bft) 95,74 %
18.02.2026 23:16 3,9 °C 3,3 °C -0,6 °C 72 % 1004,0 hPa 0,0 l/m² 0 min 0 min 0 W/m² 25,7 km/h (4 Bft) 53,49 %
18.02.2026 23:18 3,9 °C 3,3 °C -0,6 °C 72 % 1003,9 hPa 0,0 l/m² 0 min 0 min 0 W/m² 22,5 km/h (4 Bft) 95,74 %
18.02.2026 23:20 3,9 °C 3,3 °C -0,6 °C 71 % 1003,9 hPa 0,0 l/m² 0 min 0 min 0 W/m² 22,5 km/h (4 Bft) 93,62 %
18.02.2026 23:22 3,9 °C 3,3 °C -0,6 °C 72 % 1003,8 hPa 0,0 l/m² 0 min 0 min 0 W/m² 19,3 km/h (3 Bft) 95,74 %
18.02.2026 23:24 3,9 °C 3,3 °C -0,6 °C 72 % 1003,7 hPa 0,0 l/m² 0 min 0 min 0 W/m² 19,3 km/h (3 Bft) 95,74 %
18.02.2026 23:26 3,9 °C 3,3 °C -0,6 °C 72 % 1003,8 hPa 0,0 l/m² 0 min 0 min 0 W/m² 25,7 km/h (4 Bft) 94,00 %
18.02.2026 23:28 3,9 °C 3,3 °C -0,6 °C 72 % 1003,6 hPa 0,0 l/m² 0 min 0 min 0 W/m² 16,1 km/h (3 Bft) 93,62 %
18.02.2026 23:30 3,9 °C 3,3 °C -0,6 °C 72 % 1003,5 hPa 0,0 l/m² 0 min 0 min 0 W/m² 19,3 km/h (3 Bft) 93,48 %
18.02.2026 23:32 3,9 °C 3,3 °C -0,6 °C 72 % 1003,4 hPa 0,0 l/m² 0 min 0 min 0 W/m² 32,2 km/h (5 Bft) 91,49 %
18.02.2026 23:34 3,8 °C 3,3 °C -0,6 °C 72 % 1003,3 hPa 0,0 l/m² 0 min 0 min 0 W/m² 19,3 km/h (3 Bft) 91,49 %
18.02.2026 23:36 3,8 °C 3,3 °C -0,6 °C 72 % 1003,3 hPa 0,0 l/m² 0 min 0 min 0 W/m² 19,3 km/h (3 Bft) 93,62 %
18.02.2026 23:38 3,8 °C 3,3 °C -0,6 °C 72 % 1003,3 hPa 0,0 l/m² 0 min 0 min 0 W/m² 19,3 km/h (3 Bft) 91,49 %
18.02.2026 23:40 3,8 °C 3,3 °C -0,6 °C 72 % 1003,1 hPa 0,0 l/m² 0 min 0 min 0 W/m² 16,1 km/h (3 Bft) 95,74 %
18.02.2026 23:42 3,8 °C 2,8 °C -0,6 °C 72 % 1003,1 hPa 0,0 l/m² 0 min 0 min 0 W/m² 22,5 km/h (4 Bft) 91,49 %
18.02.2026 23:44 3,8 °C 3,3 °C -0,6 °C 72 % 1003,0 hPa 0,0 l/m² 0 min 0 min 0 W/m² 19,3 km/h (3 Bft) 95,74 %
18.02.2026 23:46 3,8 °C 3,3 °C -0,6 °C 72 % 1002,9 hPa 0,0 l/m² 0 min 0 min 0 W/m² 38,6 km/h (5 Bft) 95,74 %
18.02.2026 23:48 3,8 °C 3,3 °C -0,6 °C 72 % 1002,9 hPa 0,0 l/m² 0 min 0 min 0 W/m² 22,5 km/h (4 Bft) 97,87 %
18.02.2026 23:50 3,8 °C 3,3 °C -0,6 °C 72 % 1002,9 hPa 0,0 l/m² 0 min 0 min 0 W/m² 19,3 km/h (3 Bft) 97,87 %
18.02.2026 23:52 3,8 °C 2,8 °C -0,6 °C 72 % 1002,7 hPa 0,0 l/m² 0 min 0 min 0 W/m² 19,3 km/h (3 Bft) 97,87 %
18.02.2026 23:54 3,8 °C 3,3 °C -0,6 °C 72 % 1002,8 hPa 0,0 l/m² 0 min 0 min 0 W/m² 25,7 km/h (4 Bft) 97,87 %
18.02.2026 23:56 3,8 °C 3,3 °C -0,6 °C 72 % 1002,8 hPa 0,0 l/m² 0 min 0 min 0 W/m² 22,5 km/h (4 Bft) 97,83 %
18.02.2026 23:58 3,8 °C 3,3 °C -0,6 °C 72 % 1002,7 hPa 0,0 l/m² 0 min 0 min 0 W/m² 25,7 km/h (4 Bft) 97,87 %
_ Min-Zeit 07:48 07:20 05:38 15:00 23:52 - - - - 03:06 00:02
Minimum _ 1,4 °C 0,6 °C -2,2 °C 68 % 1002,7 hPa - - - - 0,0 km/h (0 Bft) 11,11 %
_ Max-Zeit 15:34 13:18 11:30 00:00 02:32 00:00 15:12 00:00 13:20 23:46 00:12
Maximum _ 7,3 °C 16,1 °C 2,8 °C 93 % 1015,4 hPa 0,0 l/m² 5 min 0 min 632 W/m² 38,6 km/h
O-SO (5 Bft)
100,00 %
Durchschnitt _ 3,3 °C 3,9 °C -0,6 °C 82 % 1011,3 hPa #0,0 l/m² #5:11 h #0 min. 206 W/m² 10,6 km/h (2 Bft) 96,82 %
© 2026 W. Hausmann